Wetterdaten: Montag, 23.03.2020
Datum Zeit Temp. Aussen Temp. o. S. Temp +5cm Feuchte Auss Luftdruck Regen Sonnenschein Regendauer Solar Windben Empfang
23.03.2020 00:00 3,5 C 2,8 C 1,7 C 56 % 1033,1 hPa 0,0 l/m 0 min 0 min 0 W/m 12,9 km/h (3 Bft) 95,74 %
23.03.2020 00:02 3,5 C 2,8 C 1,7 C 56 % 1033,1 hPa 0,0 l/m 0 min 0 min 0 W/m 6,4 km/h (2 Bft) 11,11 %
23.03.2020 00:04 3,4 C 2,8 C 1,7 C 56 % 1033,1 hPa 0,0 l/m 0 min 0 min 0 W/m 9,7 km/h (2 Bft) 90,24 %
23.03.2020 00:08 3,4 C 2,8 C 1,7 C 57 % 1033,1 hPa 0,0 l/m 0 min 0 min 0 W/m 12,9 km/h (3 Bft) 96,84 %
23.03.2020 00:10 3,3 C 2,8 C 1,7 C 57 % 1033,1 hPa 0,0 l/m 0 min 0 min 0 W/m 9,7 km/h (2 Bft) 95,74 %
23.03.2020 00:12 3,3 C 2,2 C 1,7 C 57 % 1033,1 hPa 0,0 l/m 0 min 0 min 0 W/m 16,1 km/h (3 Bft) 95,74 %
23.03.2020 00:14 3,3 C 2,2 C 1,7 C 57 % 1033,1 hPa 0,0 l/m 0 min 0 min 0 W/m 16,1 km/h (3 Bft) 97,87 %
23.03.2020 00:16 3,3 C 2,2 C 1,7 C 57 % 1033,1 hPa 0,0 l/m 0 min 0 min 0 W/m 12,9 km/h (3 Bft) 97,83 %
23.03.2020 00:18 3,3 C 2,2 C 1,7 C 57 % 1033,1 hPa 0,0 l/m 0 min 0 min 0 W/m 19,3 km/h (3 Bft) 97,87 %
23.03.2020 00:20 3,2 C 2,2 C 1,7 C 57 % 1033,1 hPa 0,0 l/m 0 min 0 min 0 W/m 12,9 km/h (3 Bft) 95,74 %
23.03.2020 00:22 3,2 C 2,2 C 1,7 C 57 % 1033,1 hPa 0,0 l/m 0 min 0 min 0 W/m 16,1 km/h (3 Bft) 97,87 %
23.03.2020 00:24 3,2 C 2,2 C 1,7 C 57 % 1033,1 hPa 0,0 l/m 0 min 0 min 0 W/m 12,9 km/h (3 Bft) 97,87 %
23.03.2020 00:26 3,2 C 2,2 C 1,7 C 58 % 1033,1 hPa 0,0 l/m 0 min 0 min 0 W/m 12,9 km/h (3 Bft) 97,87 %
23.03.2020 00:28 3,2 C 2,2 C 1,7 C 58 % 1033,1 hPa 0,0 l/m 0 min 0 min 0 W/m 12,9 km/h (3 Bft) 95,65 %
23.03.2020 00:30 3,1 C 2,2 C 1,7 C 58 % 1033,1 hPa 0,0 l/m 0 min 0 min 0 W/m 12,9 km/h (3 Bft) 95,74 %
23.03.2020 00:32 3,1 C 2,2 C 1,7 C 58 % 1033,1 hPa 0,0 l/m 0 min 0 min 0 W/m 16,1 km/h (3 Bft) 93,62 %
23.03.2020 00:34 3,1 C 2,2 C 1,7 C 58 % 1033,1 hPa 0,0 l/m 0 min 0 min 0 W/m 25,7 km/h (4 Bft) 95,74 %
23.03.2020 00:36 3,1 C 2,2 C 1,7 C 58 % 1033,1 hPa 0,0 l/m 0 min 0 min 0 W/m 12,9 km/h (3 Bft) 95,74 %
23.03.2020 00:38 3,1 C 2,2 C 1,7 C 58 % 1033,1 hPa 0,0 l/m 0 min 0 min 0 W/m 12,9 km/h (3 Bft) 95,65 %
23.03.2020 00:40 3,1 C 2,2 C 1,7 C 58 % 1033,1 hPa 0,0 l/m 0 min 0 min 0 W/m 9,7 km/h (2 Bft) 93,62 %
23.03.2020 00:42 3,1 C 2,2 C 1,7 C 59 % 1033,1 hPa 0,0 l/m 0 min 0 min 0 W/m 12,9 km/h (3 Bft) 93,62 %
23.03.2020 00:44 3,0 C 2,2 C 1,7 C 59 % 1033,2 hPa 0,0 l/m 0 min 0 min 0 W/m 16,1 km/h (3 Bft) 95,74 %
23.03.2020 00:46 3,0 C 2,2 C 1,7 C 59 % 1033,1 hPa 0,0 l/m 0 min 0 min 0 W/m 6,4 km/h (2 Bft) 95,74 %
23.03.2020 00:48 2,9 C 2,2 C 1,1 C 59 % 1033,1 hPa 0,0 l/m 0 min 0 min 0 W/m 9,7 km/h (2 Bft) 93,62 %
23.03.2020 00:50 2,9 C 2,2 C 1,7 C 59 % 1033,1 hPa 0,0 l/m 0 min 0 min 0 W/m 25,7 km/h (4 Bft) 95,74 %
23.03.2020 00:52 2,9 C 2,2 C 1,7 C 59 % 1033,1 hPa 0,0 l/m 0 min 0 min 0 W/m 22,5 km/h (4 Bft) 95,65 %
23.03.2020 00:54 2,9 C 2,2 C 1,7 C 59 % 1033,1 hPa 0,0 l/m 0 min 0 min 0 W/m 16,1 km/h (3 Bft) 95,74 %
23.03.2020 00:56 2,9 C 2,2 C 1,7 C 58 % 1033,1 hPa 0,0 l/m 0 min 0 min 0 W/m 19,3 km/h (3 Bft) 93,62 %
23.03.2020 00:58 2,9 C 2,2 C 1,7 C 58 % 1033,2 hPa 0,0 l/m 0 min 0 min 0 W/m 16,1 km/h (3 Bft) 97,87 %
23.03.2020 01:00 2,9 C 2,2 C 1,7 C 58 % 1033,2 hPa 0,0 l/m 0 min 0 min 0 W/m 22,5 km/h (4 Bft) 95,74 %
23.03.2020 01:02 2,9 C 2,2 C 1,7 C 59 % 1033,1 hPa 0,0 l/m 0 min 0 min 0 W/m 19,3 km/h (3 Bft) 95,65 %
23.03.2020 01:04 2,9 C 2,2 C 1,7 C 59 % 1033,2 hPa 0,0 l/m 0 min 0 min 0 W/m 12,9 km/h (3 Bft) 95,83 %
23.03.2020 01:06 2,9 C 2,2 C 1,7 C 59 % 1033,2 hPa 0,0 l/m 0 min 0 min 0 W/m 12,9 km/h (3 Bft) 95,74 %
23.03.2020 01:08 2,8 C 2,2 C 1,7 C 59 % 1033,2 hPa 0,0 l/m 0 min 0 min 0 W/m 16,1 km/h (3 Bft) 95,74 %
23.03.2020 01:10 2,8 C 2,2 C 1,7 C 59 % 1033,2 hPa 0,0 l/m 0 min 0 min 0 W/m 22,5 km/h (4 Bft) 97,87 %
23.03.2020 01:12 2,8 C 2,2 C 1,7 C 59 % 1033,2 hPa 0,0 l/m 0 min 0 min 0 W/m 16,1 km/h (3 Bft) 97,87 %
23.03.2020 01:14 2,8 C 2,2 C 1,7 C 59 % 1033,2 hPa 0,0 l/m 0 min 0 min 0 W/m 19,3 km/h (3 Bft) 95,74 %
23.03.2020 01:16 2,8 C 2,2 C 1,7 C 59 % 1033,2 hPa 0,0 l/m 0 min 0 min 0 W/m 35,4 km/h (5 Bft) 100,00 %
23.03.2020 01:21 2,8 C 2,2 C 1,7 C 59 % 1033,2 hPa 0,0 l/m 0 min 0 min 0 W/m 25,7 km/h (4 Bft) 98,44 %
23.03.2020 01:22 2,8 C 2,2 C 1,7 C 59 % 1033,2 hPa 0,0 l/m 0 min 0 min 0 W/m 16,1 km/h (3 Bft) 100,00 %
23.03.2020 01:24 2,8 C 2,2 C 1,7 C 59 % 1033,2 hPa 0,0 l/m 0 min 0 min 0 W/m 19,3 km/h (3 Bft) 97,87 %
23.03.2020 01:26 2,8 C 2,2 C 1,7 C 58 % 1033,2 hPa 0,0 l/m 0 min 0 min 0 W/m 35,4 km/h (5 Bft) 95,74 %
23.03.2020 01:28 2,8 C 2,2 C 1,7 C 59 % 1033,2 hPa 0,0 l/m 0 min 0 min 0 W/m 16,1 km/h (3 Bft) 97,83 %
23.03.2020 01:30 2,8 C 2,2 C 1,7 C 59 % 1033,2 hPa 0,0 l/m 0 min 0 min 0 W/m 35,4 km/h (5 Bft) 97,87 %
23.03.2020 01:32 2,8 C 2,2 C 1,7 C 59 % 1033,2 hPa 0,0 l/m 0 min 0 min 0 W/m 16,1 km/h (3 Bft) 100,00 %
23.03.2020 01:34 2,8 C 2,2 C 1,1 C 59 % 1033,2 hPa 0,0 l/m 0 min 0 min 0 W/m 25,7 km/h (4 Bft) 93,62 %
23.03.2020 01:36 2,8 C 2,2 C 1,7 C 59 % 1033,2 hPa 0,0 l/m 0 min 0 min 0 W/m 41,8 km/h (6 Bft) 100,00 %
23.03.2020 01:38 2,8 C 2,2 C 1,7 C 59 % 1033,2 hPa 0,0 l/m 0 min 0 min 0 W/m 29,0 km/h (5 Bft) 97,87 %
23.03.2020 01:40 2,8 C 2,2 C 1,7 C 59 % 1033,1 hPa 0,0 l/m 0 min 0 min 0 W/m 25,7 km/h (4 Bft) 97,83 %
23.03.2020 01:42 2,8 C 2,2 C 1,1 C 59 % 1033,2 hPa 0,0 l/m 0 min 0 min 0 W/m 25,7 km/h (4 Bft) 100,00 %
23.03.2020 01:44 2,7 C 1,7 C 1,1 C 60 % 1033,2 hPa 0,0 l/m 0 min 0 min 0 W/m 16,1 km/h (3 Bft) 100,00 %
23.03.2020 01:46 2,7 C 1,7 C 1,1 C 59 % 1033,1 hPa 0,0 l/m 0 min 0 min 0 W/m 19,3 km/h (3 Bft) 97,87 %
23.03.2020 01:48 2,7 C 1,7 C 1,1 C 59 % 1033,1 hPa 0,0 l/m 0 min 0 min 0 W/m 32,2 km/h (5 Bft) 100,00 %
23.03.2020 01:50 2,7 C 1,7 C 1,1 C 59 % 1033,1 hPa 0,0 l/m 0 min 0 min 0 W/m 29,0 km/h (5 Bft) 100,00 %
23.03.2020 01:52 2,7 C 1,7 C 1,1 C 59 % 1033,1 hPa 0,0 l/m 0 min 0 min 0 W/m 25,7 km/h (4 Bft) 100,00 %
23.03.2020 01:54 2,7 C 1,7 C 1,1 C 59 % 1033,1 hPa 0,0 l/m 0 min 0 min 0 W/m 19,3 km/h (3 Bft) 100,00 %
23.03.2020 01:56 2,6 C 1,7 C 1,1 C 59 % 1033,1 hPa 0,0 l/m 0 min 0 min 0 W/m 38,6 km/h (5 Bft) 100,00 %
23.03.2020 01:58 2,6 C 1,7 C 1,1 C 59 % 1033,1 hPa 0,0 l/m 0 min 0 min 0 W/m 22,5 km/h (4 Bft) 100,00 %
23.03.2020 02:00 2,6 C 1,7 C 1,1 C 59 % 1033,1 hPa 0,0 l/m 0 min 0 min 0 W/m 25,7 km/h (4 Bft) 100,00 %
23.03.2020 02:02 2,6 C 1,7 C 1,1 C 60 % 1033,2 hPa 0,0 l/m 0 min 0 min 0 W/m 22,5 km/h (4 Bft) 95,65 %
23.03.2020 02:07 2,6 C 1,7 C 1,1 C 60 % 1033,2 hPa 0,0 l/m 0 min 0 min 0 W/m 22,5 km/h (4 Bft) 100,00 %
23.03.2020 02:08 2,6 C 1,7 C 1,1 C 60 % 1033,2 hPa 0,0 l/m 0 min 0 min 0 W/m 22,5 km/h (4 Bft) 95,65 %
23.03.2020 02:10 2,6 C 1,7 C 1,1 C 59 % 1033,2 hPa 0,0 l/m 0 min 0 min 0 W/m 35,4 km/h (5 Bft) 97,87 %
23.03.2020 02:12 2,6 C 1,7 C 1,1 C 59 % 1033,2 hPa 0,0 l/m 0 min 0 min 0 W/m 22,5 km/h (4 Bft) 97,87 %
23.03.2020 02:14 2,6 C 1,7 C 1,1 C 60 % 1033,2 hPa 0,0 l/m 0 min 0 min 0 W/m 22,5 km/h (4 Bft) 97,83 %
23.03.2020 02:16 2,6 C 1,7 C 1,1 C 60 % 1033,2 hPa 0,0 l/m 0 min 0 min 0 W/m 22,5 km/h (4 Bft) 97,87 %
23.03.2020 02:18 2,5 C 1,7 C 1,1 C 60 % 1033,2 hPa 0,0 l/m 0 min 0 min 0 W/m 19,3 km/h (3 Bft) 97,87 %
23.03.2020 02:20 2,5 C 1,7 C 1,1 C 60 % 1033,2 hPa 0,0 l/m 0 min 0 min 0 W/m 25,7 km/h (4 Bft) 97,87 %
23.03.2020 02:22 2,5 C 1,7 C 1,1 C 59 % 1033,3 hPa 0,0 l/m 0 min 0 min 0 W/m 22,5 km/h (4 Bft) 97,87 %
23.03.2020 02:24 2,5 C 1,7 C 1,1 C 59 % 1033,2 hPa 0,0 l/m 0 min 0 min 0 W/m 29,0 km/h (5 Bft) 97,87 %
23.03.2020 02:26 2,5 C 1,7 C 1,1 C 60 % 1033,2 hPa 0,0 l/m 0 min 0 min 0 W/m 0,0 km/h (0 Bft) 93,48 %
23.03.2020 02:28 2,4 C 1,1 C 1,1 C 61 % 1033,2 hPa 0,0 l/m 0 min 0 min 0 W/m 0,0 km/h (0 Bft) 97,87 %
23.03.2020 02:30 2,4 C 1,7 C 1,1 C 60 % 1033,1 hPa 0,0 l/m 0 min 0 min 0 W/m 25,7 km/h (4 Bft) 97,87 %
23.03.2020 02:32 2,4 C 1,7 C 1,1 C 60 % 1033,1 hPa 0,0 l/m 0 min 0 min 0 W/m 12,9 km/h (3 Bft) 97,87 %
23.03.2020 02:34 2,3 C 1,7 C 1,1 C 60 % 1033,2 hPa 0,0 l/m 0 min 0 min 0 W/m 25,7 km/h (4 Bft) 97,87 %
23.03.2020 02:36 2,3 C 1,7 C 1,1 C 60 % 1033,2 hPa 0,0 l/m 0 min 0 min 0 W/m 22,5 km/h (4 Bft) 97,87 %
23.03.2020 02:38 2,3 C 1,7 C 1,1 C 60 % 1033,2 hPa 0,0 l/m 0 min 0 min 0 W/m 25,7 km/h (4 Bft) 97,83 %
23.03.2020 02:40 2,3 C 1,7 C 1,1 C 60 % 1033,2 hPa 0,0 l/m 0 min 0 min 0 W/m 19,3 km/h (3 Bft) 97,87 %
23.03.2020 02:42 2,3 C 1,7 C 1,1 C 60 % 1033,1 hPa 0,0 l/m 0 min 0 min 0 W/m 25,7 km/h (4 Bft) 97,87 %
23.03.2020 02:44 2,3 C 1,7 C 1,1 C 60 % 1033,1 hPa 0,0 l/m 0 min 0 min 0 W/m 29,0 km/h (5 Bft) 95,74 %
23.03.2020 02:46 2,3 C 1,7 C 1,1 C 60 % 1033,1 hPa 0,0 l/m 0 min 0 min 0 W/m 19,3 km/h (3 Bft) 97,87 %
23.03.2020 02:48 2,3 C 1,7 C 1,1 C 60 % 1033,2 hPa 0,0 l/m 0 min 0 min 0 W/m 19,3 km/h (3 Bft) 95,74 %
23.03.2020 02:50 2,3 C 1,7 C 1,1 C 60 % 1033,2 hPa 0,0 l/m 0 min 0 min 0 W/m 22,5 km/h (4 Bft) 93,48 %
23.03.2020 02:52 2,3 C 1,7 C 1,1 C 60 % 1033,2 hPa 0,0 l/m 0 min 0 min 0 W/m 25,7 km/h (4 Bft) 95,74 %
23.03.2020 02:54 2,3 C 1,7 C 1,1 C 60 % 1033,2 hPa 0,0 l/m 0 min 0 min 0 W/m 29,0 km/h (5 Bft) 100,00 %
23.03.2020 02:56 2,3 C 1,7 C 1,1 C 60 % 1033,2 hPa 0,0 l/m 0 min 0 min 0 W/m 16,1 km/h (3 Bft) 57,45 %
23.03.2020 02:58 2,3 C 1,7 C 1,1 C 59 % 1033,2 hPa 0,0 l/m 0 min 0 min 0 W/m 25,7 km/h (4 Bft) 92,11 %
23.03.2020 03:00 2,3 C 1,7 C 1,1 C 60 % 1033,2 hPa 0,0 l/m 0 min 0 min 0 W/m 29,0 km/h (5 Bft) 95,65 %
23.03.2020 03:02 2,3 C 1,7 C 1,1 C 59 % 1033,2 hPa 0,0 l/m 0 min 0 min 0 W/m 41,8 km/h (6 Bft) 97,87 %
23.03.2020 03:04 2,3 C 1,7 C 1,1 C 59 % 1033,3 hPa 0,0 l/m 0 min 0 min 0 W/m 16,1 km/h (3 Bft) 97,87 %
23.03.2020 03:06 2,3 C 1,1 C 1,1 C 60 % 1033,2 hPa 0,0 l/m 0 min 0 min 0 W/m 19,3 km/h (3 Bft) 97,87 %
23.03.2020 03:08 2,2 C 1,7 C 1,1 C 60 % 1033,2 hPa 0,0 l/m 0 min 0 min 0 W/m 22,5 km/h (4 Bft) 95,74 %
23.03.2020 03:10 2,2 C 1,7 C 1,1 C 59 % 1033,1 hPa 0,0 l/m 0 min 0 min 0 W/m 22,5 km/h (4 Bft) 97,87 %
23.03.2020 03:12 2,2 C 1,1 C 0,6 C 60 % 1033,2 hPa 0,0 l/m 0 min 0 min 0 W/m 12,9 km/h (3 Bft) 97,83 %
23.03.2020 03:14 2,2 C 1,1 C 0,6 C 60 % 1033,2 hPa 0,0 l/m 0 min 0 min 0 W/m 22,5 km/h (4 Bft) 97,87 %
23.03.2020 03:16 2,2 C 1,7 C 1,1 C 60 % 1033,1 hPa 0,0 l/m 0 min 0 min 0 W/m 41,8 km/h (6 Bft) 97,87 %
23.03.2020 03:18 2,2 C 1,1 C 1,1 C 60 % 1033,1 hPa 0,0 l/m 0 min 0 min 0 W/m 22,5 km/h (4 Bft) 97,87 %
23.03.2020 03:20 2,2 C 1,1 C 0,6 C 60 % 1033,2 hPa 0,0 l/m 0 min 0 min 0 W/m 25,7 km/h (4 Bft) 97,87 %
23.03.2020 03:22 2,1 C 1,1 C 0,6 C 60 % 1033,2 hPa 0,0 l/m 0 min 0 min 0 W/m 19,3 km/h (3 Bft) 95,74 %
23.03.2020 03:24 2,1 C 1,1 C 0,6 C 60 % 1033,1 hPa 0,0 l/m 0 min 0 min 0 W/m 25,7 km/h (4 Bft) 93,48 %
23.03.2020 03:26 2,1 C 1,1 C 0,6 C 60 % 1033,2 hPa 0,0 l/m 0 min 0 min 0 W/m 25,7 km/h (4 Bft) 95,74 %
23.03.2020 03:28 2,1 C 1,1 C 0,6 C 60 % 1033,2 hPa 0,0 l/m 0 min 0 min 0 W/m 25,7 km/h (4 Bft) 97,87 %
23.03.2020 03:30 2,1 C 1,1 C 0,6 C 59 % 1033,2 hPa 0,0 l/m 0 min 0 min 0 W/m 35,4 km/h (5 Bft) 97,87 %
23.03.2020 03:32 2,1 C 1,1 C 0,6 C 60 % 1033,2 hPa 0,0 l/m 0 min 0 min 0 W/m 19,3 km/h (3 Bft) 97,87 %
23.03.2020 03:34 2,1 C 1,1 C 0,6 C 60 % 1033,1 hPa 0,0 l/m 0 min 0 min 0 W/m 25,7 km/h (4 Bft) 97,87 %
23.03.2020 03:36 2,1 C 1,1 C 0,6 C 60 % 1033,2 hPa 0,0 l/m 0 min 0 min 0 W/m 25,7 km/h (4 Bft) 93,48 %
23.03.2020 03:38 2,1 C 1,1 C 0,6 C 60 % 1033,2 hPa 0,0 l/m 0 min 0 min 0 W/m 22,5 km/h (4 Bft) 93,62 %
23.03.2020 03:40 2,0 C 1,1 C 0,6 C 60 % 1033,1 hPa 0,0 l/m 0 min 0 min 0 W/m 19,3 km/h (3 Bft) 100,00 %
23.03.2020 03:42 2,0 C 1,1 C 0,6 C 60 % 1033,2 hPa 0,0 l/m 0 min 0 min 0 W/m 19,3 km/h (3 Bft) 100,00 %
23.03.2020 03:44 2,0 C 1,1 C 0,6 C 60 % 1033,2 hPa 0,0 l/m 0 min 0 min 0 W/m 29,0 km/h (5 Bft) 95,74 %
23.03.2020 03:46 1,9 C 1,1 C 0,6 C 60 % 1033,2 hPa 0,0 l/m 0 min 0 min 0 W/m 22,5 km/h (4 Bft) 97,87 %
23.03.2020 03:48 1,9 C 1,1 C 0,6 C 60 % 1033,1 hPa 0,0 l/m 0 min 0 min 0 W/m 16,1 km/h (3 Bft) 97,83 %
23.03.2020 03:50 1,9 C 1,1 C 0,6 C 59 % 1033,2 hPa 0,0 l/m 0 min 0 min 0 W/m 25,7 km/h (4 Bft) 100,00 %
23.03.2020 03:52 1,9 C 1,1 C 0,6 C 59 % 1033,1 hPa 0,0 l/m 0 min 0 min 0 W/m 22,5 km/h (4 Bft) 97,87 %
23.03.2020 03:54 1,9 C 1,1 C 0,6 C 60 % 1033,1 hPa 0,0 l/m 0 min 0 min 0 W/m 19,3 km/h (3 Bft) 100,00 %
23.03.2020 03:56 1,9 C 1,1 C 0,6 C 59 % 1033,1 hPa 0,0 l/m 0 min 0 min 0 W/m 25,7 km/h (4 Bft) 91,49 %
23.03.2020 03:58 1,9 C 1,1 C 0,6 C 59 % 1033,1 hPa 0,0 l/m 0 min 0 min 0 W/m 22,5 km/h (4 Bft) 97,83 %
23.03.2020 04:00 1,9 C 1,1 C 0,6 C 59 % 1033,1 hPa 0,0 l/m 0 min 0 min 0 W/m 35,4 km/h (5 Bft) 100,00 %
23.03.2020 04:02 1,9 C 1,1 C 0,6 C 59 % 1033,1 hPa 0,0 l/m 0 min 0 min 0 W/m 22,5 km/h (4 Bft) 95,45 %
23.03.2020 04:04 1,9 C 1,1 C 0,6 C 59 % 1033,1 hPa 0,0 l/m 0 min 0 min 0 W/m 19,3 km/h (3 Bft) 97,87 %
23.03.2020 04:06 1,8 C 1,1 C 0,6 C 59 % 1033,2 hPa 0,0 l/m 0 min 0 min 0 W/m 22,5 km/h (4 Bft) 95,74 %
23.03.2020 04:11 1,8 C 1,1 C 0,6 C 59 % 1033,3 hPa 0,0 l/m 0 min 0 min 0 W/m 22,5 km/h (4 Bft) 88,89 %
23.03.2020 04:12 1,8 C 1,1 C 0,6 C 59 % 1033,3 hPa 0,0 l/m 0 min 0 min 0 W/m 22,5 km/h (4 Bft) 95,65 %
23.03.2020 04:14 1,8 C 1,1 C 0,6 C 59 % 1033,1 hPa 0,0 l/m 0 min 0 min 0 W/m 22,5 km/h (4 Bft) 95,74 %
23.03.2020 04:16 1,8 C 1,1 C 0,6 C 59 % 1033,2 hPa 0,0 l/m 0 min 0 min 0 W/m 25,7 km/h (4 Bft) 97,87 %
23.03.2020 04:18 1,8 C 1,1 C 0,6 C 59 % 1033,2 hPa 0,0 l/m 0 min 0 min 0 W/m 29,0 km/h (5 Bft) 95,74 %
23.03.2020 04:20 1,8 C 1,1 C 0,6 C 59 % 1033,2 hPa 0,0 l/m 0 min 0 min 0 W/m 16,1 km/h (3 Bft) 97,87 %
23.03.2020 04:22 1,8 C 1,1 C 0,6 C 59 % 1033,2 hPa 0,0 l/m 0 min 0 min 0 W/m 19,3 km/h (3 Bft) 97,83 %
23.03.2020 04:24 1,7 C 0,6 C 0,6 C 59 % 1033,2 hPa 0,0 l/m 0 min 0 min 0 W/m 12,9 km/h (3 Bft) 95,74 %
23.03.2020 04:26 1,7 C 0,6 C 0,6 C 59 % 1033,3 hPa 0,0 l/m 0 min 0 min 0 W/m 16,1 km/h (3 Bft) 97,87 %
23.03.2020 04:28 1,7 C 0,6 C 0,0 C 59 % 1033,2 hPa 0,0 l/m 0 min 0 min 0 W/m 16,1 km/h (3 Bft) 95,74 %
23.03.2020 04:30 1,7 C 0,6 C 0,6 C 59 % 1033,2 hPa 0,0 l/m 0 min 0 min 0 W/m 16,1 km/h (3 Bft) 97,87 %
23.03.2020 04:32 1,6 C 0,6 C 0,6 C 59 % 1033,3 hPa 0,0 l/m 0 min 0 min 0 W/m 19,3 km/h (3 Bft) 95,74 %
23.03.2020 04:34 1,6 C 0,6 C 0,0 C 59 % 1033,3 hPa 0,0 l/m 0 min 0 min 0 W/m 16,1 km/h (3 Bft) 95,65 %
23.03.2020 04:36 1,6 C 0,6 C 0,0 C 60 % 1033,3 hPa 0,0 l/m 0 min 0 min 0 W/m 0,0 km/h (0 Bft) 53,49 %
23.03.2020 04:38 1,6 C 0,6 C 0,0 C 60 % 1033,3 hPa 0,0 l/m 0 min 0 min 0 W/m 0,0 km/h (0 Bft) 97,87 %
23.03.2020 04:40 1,6 C 0,6 C 0,0 C 60 % 1033,4 hPa 0,0 l/m 0 min 0 min 0 W/m 0,0 km/h (0 Bft) 97,87 %
23.03.2020 04:42 1,5 C 0,6 C 0,0 C 59 % 1033,4 hPa 0,0 l/m 0 min 0 min 0 W/m 22,5 km/h (4 Bft) 97,87 %
23.03.2020 04:44 1,5 C 0,6 C 0,0 C 60 % 1033,3 hPa 0,0 l/m 0 min 0 min 0 W/m 25,7 km/h (4 Bft) 100,00 %
23.03.2020 04:46 1,4 C 0,6 C 0,0 C 59 % 1033,4 hPa 0,0 l/m 0 min 0 min 0 W/m 22,5 km/h (4 Bft) 95,74 %
23.03.2020 04:48 1,4 C 0,6 C 0,0 C 60 % 1033,5 hPa 0,0 l/m 0 min 0 min 0 W/m 16,1 km/h (3 Bft) 95,74 %
23.03.2020 04:50 1,4 C 0,6 C 0,0 C 60 % 1033,5 hPa 0,0 l/m 0 min 0 min 0 W/m 19,3 km/h (3 Bft) 97,87 %
23.03.2020 04:52 1,4 C 0,6 C 0,0 C 60 % 1033,5 hPa 0,0 l/m 0 min 0 min 0 W/m 16,1 km/h (3 Bft) 97,87 %
23.03.2020 04:54 1,4 C 0,6 C 0,0 C 60 % 1033,4 hPa 0,0 l/m 0 min 0 min 0 W/m 12,9 km/h (3 Bft) 100,00 %
23.03.2020 04:56 1,4 C 0,6 C 0,0 C 60 % 1033,5 hPa 0,0 l/m 0 min 0 min 0 W/m 25,7 km/h (4 Bft) 95,83 %
23.03.2020 04:58 1,3 C 0,6 C 0,0 C 60 % 1033,5 hPa 0,0 l/m 0 min 0 min 0 W/m 9,7 km/h (2 Bft) 97,87 %
23.03.2020 05:00 1,3 C 0,6 C 0,0 C 60 % 1033,5 hPa 0,0 l/m 0 min 0 min 0 W/m 9,7 km/h (2 Bft) 95,74 %
23.03.2020 05:02 1,3 C 0,6 C 0,0 C 61 % 1033,6 hPa 0,0 l/m 0 min 0 min 0 W/m 19,3 km/h (3 Bft) 95,74 %
23.03.2020 05:04 1,3 C 0,6 C 0,0 C 61 % 1033,5 hPa 0,0 l/m 0 min 0 min 0 W/m 12,9 km/h (3 Bft) 95,65 %
23.03.2020 05:06 1,3 C 0,6 C 0,0 C 61 % 1033,6 hPa 0,0 l/m 0 min 0 min 0 W/m 19,3 km/h (3 Bft) 93,62 %
23.03.2020 05:08 1,2 C 0,6 C 0,0 C 61 % 1033,6 hPa 0,0 l/m 0 min 0 min 0 W/m 16,1 km/h (3 Bft) 95,74 %
23.03.2020 05:10 1,2 C 0,6 C 0,0 C 61 % 1033,5 hPa 0,0 l/m 0 min 0 min 0 W/m 12,9 km/h (3 Bft) 97,87 %
23.03.2020 05:12 1,2 C 0,6 C 0,0 C 61 % 1033,5 hPa 0,0 l/m 0 min 0 min 0 W/m 19,3 km/h (3 Bft) 95,74 %
23.03.2020 05:14 1,2 C 0,6 C 0,0 C 61 % 1033,5 hPa 0,0 l/m 0 min 0 min 0 W/m 19,3 km/h (3 Bft) 95,65 %
23.03.2020 05:16 1,1 C 0,6 C 0,0 C 61 % 1033,4 hPa 0,0 l/m 0 min 0 min 0 W/m 25,7 km/h (4 Bft) 93,62 %
23.03.2020 05:18 1,1 C 0,6 C 0,0 C 61 % 1033,5 hPa 0,0 l/m 0 min 0 min 0 W/m 25,7 km/h (4 Bft) 97,87 %
23.03.2020 05:20 1,1 C 0,6 C 0,0 C 60 % 1033,5 hPa 0,0 l/m 0 min 0 min 0 W/m 16,1 km/h (3 Bft) 97,87 %
23.03.2020 05:22 1,1 C 0,6 C 0,0 C 61 % 1033,5 hPa 0,0 l/m 0 min 0 min 0 W/m 22,5 km/h (4 Bft) 59,57 %
23.03.2020 05:24 1,1 C 0,6 C 0,0 C 60 % 1033,5 hPa 0,0 l/m 0 min 0 min 0 W/m 22,5 km/h (4 Bft) 83,87 %
23.03.2020 05:26 1,1 C 0,6 C 0,0 C 61 % 1033,5 hPa 0,0 l/m 0 min 0 min 0 W/m 22,5 km/h (4 Bft) 94,74 %
23.03.2020 05:28 1,1 C 0,6 C 0,0 C 61 % 1033,5 hPa 0,0 l/m 0 min 0 min 0 W/m 22,5 km/h (4 Bft) 93,48 %
23.03.2020 05:30 1,1 C 0,0 C 0,0 C 61 % 1033,5 hPa 0,0 l/m 0 min 0 min 0 W/m 22,5 km/h (4 Bft) 93,62 %
23.03.2020 05:32 1,1 C 0,0 C -0,6 C 61 % 1033,4 hPa 0,0 l/m 0 min 0 min 0 W/m 22,5 km/h (4 Bft) 95,74 %
23.03.2020 05:34 1,1 C 0,0 C 0,0 C 61 % 1033,5 hPa 0,0 l/m 0 min 0 min 0 W/m 19,3 km/h (3 Bft) 93,62 %
23.03.2020 05:36 1,0 C 0,0 C 0,0 C 61 % 1033,5 hPa 0,0 l/m 0 min 0 min 0 W/m 16,1 km/h (3 Bft) 95,74 %
23.03.2020 05:38 1,0 C 0,0 C 0,0 C 60 % 1033,5 hPa 0,0 l/m 0 min 0 min 0 W/m 19,3 km/h (3 Bft) 93,48 %
23.03.2020 05:40 1,0 C 0,6 C 0,0 C 60 % 1033,5 hPa 0,0 l/m 0 min 0 min 0 W/m 22,5 km/h (4 Bft) 93,62 %
23.03.2020 05:42 1,0 C 0,0 C -0,6 C 60 % 1033,5 hPa 0,0 l/m 0 min 0 min 0 W/m 16,1 km/h (3 Bft) 95,74 %
23.03.2020 05:44 1,0 C 0,0 C -0,6 C 61 % 1033,5 hPa 0,0 l/m 0 min 0 min 0 W/m 19,3 km/h (3 Bft) 93,62 %
23.03.2020 05:46 0,9 C 0,0 C -0,6 C 61 % 1033,5 hPa 0,0 l/m 0 min 0 min 0 W/m 19,3 km/h (3 Bft) 91,49 %
23.03.2020 05:48 0,9 C 0,0 C -0,6 C 61 % 1033,5 hPa 0,0 l/m 0 min 0 min 0 W/m 19,3 km/h (3 Bft) 95,74 %
23.03.2020 05:50 0,9 C 0,0 C -0,6 C 61 % 1033,6 hPa 0,0 l/m 0 min 0 min 0 W/m 19,3 km/h (3 Bft) 95,65 %
23.03.2020 05:52 0,9 C 0,0 C -0,6 C 61 % 1033,6 hPa 0,0 l/m 0 min 0 min 0 W/m 25,7 km/h (4 Bft) 97,87 %
23.03.2020 05:54 0,9 C 0,0 C -0,6 C 61 % 1033,7 hPa 0,0 l/m 0 min 0 min 0 W/m 22,5 km/h (4 Bft) 97,87 %
23.03.2020 05:56 0,9 C 0,0 C -0,6 C 61 % 1033,6 hPa 0,0 l/m 0 min 0 min 0 W/m 16,1 km/h (3 Bft) 97,87 %
23.03.2020 05:58 0,9 C 0,0 C -0,6 C 60 % 1033,7 hPa 0,0 l/m 0 min 0 min 0 W/m 38,6 km/h (5 Bft) 95,74 %
23.03.2020 06:00 0,9 C 0,0 C -0,6 C 60 % 1033,6 hPa 0,0 l/m 0 min 0 min 0 W/m 29,0 km/h (5 Bft) 97,87 %
23.03.2020 06:02 0,9 C 0,0 C -0,6 C 60 % 1033,7 hPa 0,0 l/m 0 min 0 min 0 W/m 19,3 km/h (3 Bft) 93,48 %
23.03.2020 06:04 0,8 C 0,0 C -0,6 C 61 % 1033,7 hPa 0,0 l/m 0 min 0 min 0 W/m 16,1 km/h (3 Bft) 97,87 %
23.03.2020 06:06 0,8 C 0,0 C -0,6 C 61 % 1033,7 hPa 0,0 l/m 0 min 0 min 0 W/m 12,9 km/h (3 Bft) 97,87 %
23.03.2020 06:08 0,8 C 0,0 C -0,6 C 61 % 1033,7 hPa 0,0 l/m 0 min 0 min 0 W/m 19,3 km/h (3 Bft) 95,74 %
23.03.2020 06:10 0,8 C 0,0 C -0,6 C 61 % 1033,7 hPa 0,0 l/m 0 min 0 min 0 W/m 19,3 km/h (3 Bft) 95,74 %
23.03.2020 06:12 0,8 C 0,0 C -0,6 C 61 % 1033,7 hPa 0,0 l/m 0 min 0 min 0 W/m 35,4 km/h (5 Bft) 97,87 %
23.03.2020 06:14 0,7 C 0,0 C -0,6 C 61 % 1033,7 hPa 0,0 l/m 0 min 0 min 0 W/m 32,2 km/h (5 Bft) 97,83 %
23.03.2020 06:16 0,8 C 0,0 C -0,6 C 61 % 1033,7 hPa 0,0 l/m 0 min 0 min 0 W/m 22,5 km/h (4 Bft) 100,00 %
23.03.2020 06:18 0,7 C 0,0 C -0,6 C 61 % 1033,7 hPa 0,0 l/m 0 min 0 min 0 W/m 35,4 km/h (5 Bft) 97,87 %
23.03.2020 06:20 0,7 C 0,0 C -0,6 C 60 % 1033,7 hPa 0,0 l/m 0 min 0 min 0 W/m 22,5 km/h (4 Bft) 100,00 %
23.03.2020 06:22 0,7 C 0,0 C -0,6 C 60 % 1033,7 hPa 0,0 l/m 0 min 0 min 0 W/m 35,4 km/h (5 Bft) 97,87 %
23.03.2020 06:24 0,7 C 0,0 C -0,6 C 61 % 1033,7 hPa 0,0 l/m 0 min 0 min 0 W/m 19,3 km/h (3 Bft) 97,87 %
23.03.2020 06:26 0,7 C 0,0 C -0,6 C 61 % 1033,7 hPa 0,0 l/m 0 min 0 min 0 W/m 19,3 km/h (3 Bft) 100,00 %
23.03.2020 06:28 0,7 C 0,0 C -0,6 C 61 % 1033,6 hPa 0,0 l/m 0 min 0 min 0 W/m 38,6 km/h (5 Bft) 100,00 %
23.03.2020 06:30 0,7 C 0,0 C -0,6 C 61 % 1033,7 hPa 0,0 l/m 0 min 0 min 1 W/m 25,7 km/h (4 Bft) 100,00 %
23.03.2020 06:32 0,7 C 0,0 C -0,6 C 61 % 1033,7 hPa 0,0 l/m 0 min 0 min 5 W/m 12,9 km/h (3 Bft) 100,00 %
23.03.2020 06:34 0,6 C 0,0 C -0,6 C 61 % 1033,7 hPa 0,0 l/m 0 min 0 min 5 W/m 22,5 km/h (4 Bft) 100,00 %
23.03.2020 06:36 0,6 C 0,0 C -0,6 C 61 % 1033,7 hPa 0,0 l/m 0 min 0 min 6 W/m 16,1 km/h (3 Bft) 100,00 %
23.03.2020 06:38 0,6 C 0,0 C -0,6 C 61 % 1033,7 hPa 0,0 l/m 0 min 0 min 7 W/m 25,7 km/h (4 Bft) 100,00 %
23.03.2020 06:40 0,6 C 0,0 C -0,6 C 61 % 1033,7 hPa 0,0 l/m 0 min 0 min 7 W/m 9,7 km/h (2 Bft) 97,87 %
23.03.2020 06:42 0,6 C 0,0 C -0,6 C 61 % 1033,7 hPa 0,0 l/m 0 min 0 min 9 W/m 35,4 km/h (5 Bft) 100,00 %
23.03.2020 06:44 0,6 C 0,0 C -0,6 C 61 % 1033,7 hPa 0,0 l/m 0 min 0 min 11 W/m 19,3 km/h (3 Bft) 100,00 %
23.03.2020 06:46 0,6 C 0,0 C -0,6 C 61 % 1033,7 hPa 0,0 l/m 0 min 0 min 11 W/m 22,5 km/h (4 Bft) 100,00 %
23.03.2020 06:48 0,6 C 0,0 C -0,6 C 61 % 1033,7 hPa 0,0 l/m 0 min 0 min 12 W/m 16,1 km/h (3 Bft) 95,65 %
23.03.2020 06:50 0,6 C 0,0 C -0,6 C 61 % 1033,7 hPa 0,0 l/m 0 min 0 min 12 W/m 19,3 km/h (3 Bft) 100,00 %
23.03.2020 06:52 0,6 C 0,0 C -0,6 C 61 % 1033,8 hPa 0,0 l/m 0 min 0 min 14 W/m 16,1 km/h (3 Bft) 100,00 %
23.03.2020 06:54 0,6 C 0,0 C -0,6 C 61 % 1033,8 hPa 0,0 l/m 0 min 0 min 14 W/m 16,1 km/h (3 Bft) 100,00 %
23.03.2020 06:56 0,6 C 0,0 C -0,6 C 61 % 1033,8 hPa 0,0 l/m 0 min 0 min 16 W/m 19,3 km/h (3 Bft) 100,00 %
23.03.2020 06:58 0,6 C 0,0 C -0,6 C 61 % 1033,8 hPa 0,0 l/m 0 min 0 min 16 W/m 25,7 km/h (4 Bft) 100,00 %
23.03.2020 07:00 0,6 C 0,0 C -0,6 C 61 % 1033,8 hPa 0,0 l/m 0 min 0 min 18 W/m 16,1 km/h (3 Bft) 100,00 %
23.03.2020 07:02 0,6 C 0,0 C -0,6 C 61 % 1033,8 hPa 0,0 l/m 0 min 0 min 18 W/m 19,3 km/h (3 Bft) 100,00 %
23.03.2020 07:04 0,6 C 0,0 C -0,6 C 61 % 1033,8 hPa 0,0 l/m 0 min 0 min 19 W/m 25,7 km/h (4 Bft) 100,00 %
23.03.2020 07:06 0,6 C 0,0 C -0,6 C 60 % 1033,8 hPa 0,0 l/m 0 min 0 min 20 W/m 41,8 km/h (6 Bft) 97,87 %
23.03.2020 07:08 0,6 C 0,0 C -0,6 C 60 % 1033,8 hPa 0,0 l/m 0 min 0 min 21 W/m 25,7 km/h (4 Bft) 97,87 %
23.03.2020 07:10 0,6 C 0,0 C -0,6 C 60 % 1033,8 hPa 0,0 l/m 0 min 0 min 21 W/m 22,5 km/h (4 Bft) 100,00 %
23.03.2020 07:12 0,6 C 0,0 C -0,6 C 60 % 1033,8 hPa 0,0 l/m 0 min 0 min 22 W/m 19,3 km/h (3 Bft) 97,83 %
23.03.2020 07:14 0,6 C 0,0 C -0,6 C 60 % 1033,8 hPa 0,0 l/m 0 min 0 min 23 W/m 19,3 km/h (3 Bft) 97,87 %
23.03.2020 07:16 0,7 C 0,0 C -0,6 C 60 % 1033,9 hPa 0,0 l/m 0 min 0 min 24 W/m 25,7 km/h (4 Bft) 97,87 %
23.03.2020 07:18 0,7 C 0,6 C -0,6 C 60 % 1033,9 hPa 0,0 l/m 0 min 0 min 25 W/m 25,7 km/h (4 Bft) 100,00 %
23.03.2020 07:20 0,7 C 0,6 C -0,6 C 60 % 1033,9 hPa 0,0 l/m 0 min 0 min 25 W/m 19,3 km/h (3 Bft) 100,00 %
23.03.2020 07:22 0,7 C 0,6 C 0,0 C 60 % 1033,9 hPa 0,0 l/m 0 min 0 min 26 W/m 22,5 km/h (4 Bft) 97,83 %
23.03.2020 07:24 0,7 C 0,6 C 0,0 C 60 % 1033,9 hPa 0,0 l/m 0 min 0 min 26 W/m 22,5 km/h (4 Bft) 100,00 %
23.03.2020 07:26 0,8 C 0,6 C 0,0 C 60 % 1033,9 hPa 0,0 l/m 0 min 0 min 27 W/m 29,0 km/h (5 Bft) 100,00 %
23.03.2020 07:28 0,8 C 0,6 C 0,0 C 60 % 1033,9 hPa 0,0 l/m 0 min 0 min 28 W/m 19,3 km/h (3 Bft) 97,87 %
23.03.2020 07:30 0,8 C 0,6 C 0,0 C 60 % 1033,9 hPa 0,0 l/m 0 min 0 min 28 W/m 19,3 km/h (3 Bft) 100,00 %
23.03.2020 07:32 0,8 C 0,6 C 0,0 C 60 % 1033,9 hPa 0,0 l/m 0 min 0 min 30 W/m 25,7 km/h (4 Bft) 100,00 %
23.03.2020 07:34 0,9 C 0,6 C 0,0 C 60 % 1033,9 hPa 0,0 l/m 0 min 0 min 30 W/m 25,7 km/h (4 Bft) 100,00 %
23.03.2020 07:36 0,9 C 0,6 C 0,0 C 59 % 1033,8 hPa 0,0 l/m 0 min 0 min 31 W/m 29,0 km/h (5 Bft) 100,00 %
23.03.2020 07:38 0,9 C 0,6 C 0,0 C 59 % 1033,9 hPa 0,0 l/m 0 min 0 min 32 W/m 29,0 km/h (5 Bft) 56,52 %
23.03.2020 07:40 0,9 C 0,6 C 0,0 C 59 % 1033,9 hPa 0,0 l/m 0 min 0 min 32 W/m 25,7 km/h (4 Bft) 96,88 %
23.03.2020 07:42 0,9 C 0,6 C 0,0 C 58 % 1033,8 hPa 0,0 l/m 0 min 0 min 33 W/m 25,7 km/h (4 Bft) 100,00 %
23.03.2020 07:44 1,0 C 0,6 C 0,0 C 58 % 1033,9 hPa 0,0 l/m 0 min 0 min 33 W/m 22,5 km/h (4 Bft) 100,00 %
23.03.2020 07:46 1,0 C 0,6 C 0,0 C 59 % 1033,9 hPa 0,0 l/m 0 min 0 min 33 W/m 35,4 km/h (5 Bft) 100,00 %
23.03.2020 07:48 1,1 C 0,6 C 0,0 C 58 % 1034,0 hPa 0,0 l/m 0 min 0 min 35 W/m 22,5 km/h (4 Bft) 97,87 %
23.03.2020 07:50 1,1 C 0,6 C 0,0 C 58 % 1034,0 hPa 0,0 l/m 0 min 0 min 35 W/m 29,0 km/h (5 Bft) 100,00 %
23.03.2020 07:52 1,1 C 0,6 C 0,0 C 58 % 1034,0 hPa 0,0 l/m 0 min 0 min 36 W/m 22,5 km/h (4 Bft) 97,87 %
23.03.2020 07:54 1,2 C 1,1 C 0,0 C 58 % 1034,0 hPa 0,0 l/m 0 min 0 min 37 W/m 22,5 km/h (4 Bft) 97,87 %
23.03.2020 07:56 1,2 C 1,1 C 0,0 C 57 % 1034,0 hPa 0,0 l/m 0 min 0 min 37 W/m 29,0 km/h (5 Bft) 97,87 %
23.03.2020 07:58 1,2 C 1,1 C 0,6 C 57 % 1034,1 hPa 0,0 l/m 0 min 0 min 39 W/m 22,5 km/h (4 Bft) 97,83 %
23.03.2020 08:00 1,2 C 1,1 C 0,6 C 57 % 1034,1 hPa 0,0 l/m 0 min 0 min 39 W/m 22,5 km/h (4 Bft) 95,74 %
23.03.2020 08:02 1,3 C 1,1 C 0,6 C 57 % 1034,2 hPa 0,0 l/m 0 min 0 min 40 W/m 25,7 km/h (4 Bft) 95,74 %
23.03.2020 08:04 1,3 C 1,1 C 0,6 C 57 % 1034,2 hPa 0,0 l/m 0 min 0 min 40 W/m 22,5 km/h (4 Bft) 95,74 %
23.03.2020 08:06 1,3 C 1,1 C 0,6 C 57 % 1034,2 hPa 0,0 l/m 0 min 0 min 40 W/m 38,6 km/h (5 Bft) 91,49 %
23.03.2020 08:08 1,4 C 1,1 C 0,6 C 56 % 1034,2 hPa 0,0 l/m 0 min 0 min 42 W/m 29,0 km/h (5 Bft) 93,48 %
23.03.2020 08:10 1,4 C 1,1 C 0,6 C 57 % 1034,2 hPa 0,0 l/m 0 min 0 min 42 W/m 16,1 km/h (3 Bft) 93,62 %
23.03.2020 08:12 1,4 C 1,1 C 0,6 C 57 % 1034,2 hPa 0,0 l/m 0 min 0 min 42 W/m 22,5 km/h (4 Bft) 93,62 %
23.03.2020 08:14 1,5 C 1,1 C 0,6 C 57 % 1034,2 hPa 0,0 l/m 0 min 0 min 44 W/m 35,4 km/h (5 Bft) 93,62 %
23.03.2020 08:16 1,5 C 1,1 C 0,6 C 57 % 1034,2 hPa 0,0 l/m 0 min 0 min 44 W/m 22,5 km/h (4 Bft) 87,23 %
23.03.2020 08:18 1,6 C 1,1 C 0,6 C 56 % 1034,1 hPa 0,0 l/m 0 min 0 min 45 W/m 38,6 km/h (5 Bft) 93,62 %
23.03.2020 08:20 1,6 C 1,1 C 0,6 C 55 % 1034,2 hPa 0,0 l/m 0 min 0 min 46 W/m 41,8 km/h (6 Bft) 93,48 %
23.03.2020 08:22 1,6 C 1,7 C 0,6 C 56 % 1034,2 hPa 0,0 l/m 0 min 0 min 46 W/m 19,3 km/h (3 Bft) 93,62 %
23.03.2020 08:24 1,7 C 1,7 C 0,6 C 56 % 1034,2 hPa 0,0 l/m 0 min 0 min 47 W/m 22,5 km/h (4 Bft) 93,62 %
23.03.2020 08:26 1,7 C 1,7 C 0,6 C 56 % 1034,2 hPa 0,0 l/m 0 min 0 min 47 W/m 38,6 km/h (5 Bft) 40,54 %
23.03.2020 08:28 1,7 C 1,7 C 0,6 C 55 % 1034,2 hPa 0,0 l/m 0 min 0 min 48 W/m 25,7 km/h (4 Bft) 93,18 %
23.03.2020 08:30 1,8 C 1,7 C 1,1 C 55 % 1034,1 hPa 0,0 l/m 0 min 0 min 49 W/m 29,0 km/h (5 Bft) 93,62 %
23.03.2020 08:32 1,8 C 1,7 C 1,1 C 55 % 1034,1 hPa 0,0 l/m 0 min 0 min 50 W/m 29,0 km/h (5 Bft) 93,48 %
23.03.2020 08:34 1,9 C 1,7 C 1,1 C 55 % 1034,2 hPa 0,0 l/m 0 min 0 min 51 W/m 29,0 km/h (5 Bft) 91,49 %
23.03.2020 08:36 1,9 C 1,7 C 1,1 C 54 % 1034,2 hPa 0,0 l/m 0 min 0 min 52 W/m 51,5 km/h (7 Bft) 93,62 %
23.03.2020 08:38 1,9 C 1,7 C 1,1 C 54 % 1034,2 hPa 0,0 l/m 0 min 0 min 59 W/m 45,1 km/h (6 Bft) 95,74 %
23.03.2020 08:40 2,0 C 1,7 C 1,1 C 55 % 1034,2 hPa 0,0 l/m 2 min 0 min 187 W/m 35,4 km/h (5 Bft) 95,74 %
23.03.2020 08:44 2,1 C 3,9 C 1,1 C 54 % 1034,3 hPa 0,0 l/m 4 min 0 min 330 W/m 38,6 km/h (5 Bft) 93,48 %
23.03.2020 08:46 2,1 C 4,4 C 1,1 C 54 % 1034,3 hPa 0,0 l/m 2 min 0 min 336 W/m 35,4 km/h (5 Bft) 97,87 %
23.03.2020 08:48 2,2 C 5,6 C 1,1 C 54 % 1034,2 hPa 0,0 l/m 2 min 0 min 343 W/m 25,7 km/h (4 Bft) 93,62 %
23.03.2020 08:50 2,3 C 5,0 C 1,1 C 54 % 1034,3 hPa 0,0 l/m 2 min 0 min 351 W/m 35,4 km/h (5 Bft) 93,62 %
23.03.2020 08:52 2,4 C 5,6 C 1,7 C 54 % 1034,2 hPa 0,0 l/m 2 min 0 min 357 W/m 29,0 km/h (5 Bft) 95,74 %
23.03.2020 08:54 2,5 C 5,6 C 1,7 C 54 % 1034,1 hPa 0,0 l/m 2 min 0 min 362 W/m 38,6 km/h (5 Bft) 95,74 %
23.03.2020 08:56 2,6 C 5,0 C 1,7 C 53 % 1034,2 hPa 0,0 l/m 2 min 0 min 369 W/m 38,6 km/h (5 Bft) 95,65 %
23.03.2020 08:58 2,7 C 5,0 C 1,7 C 51 % 1034,2 hPa 0,0 l/m 2 min 0 min 373 W/m 54,7 km/h (7 Bft) 97,87 %
23.03.2020 09:00 2,8 C 5,6 C 1,7 C 52 % 1034,2 hPa 0,0 l/m 2 min 0 min 379 W/m 35,4 km/h (5 Bft) 95,74 %
23.03.2020 09:02 2,8 C 5,6 C 1,7 C 53 % 1034,2 hPa 0,0 l/m 2 min 0 min 383 W/m 29,0 km/h (5 Bft) 100,00 %
23.03.2020 09:04 2,9 C 5,6 C 2,2 C 52 % 1034,2 hPa 0,0 l/m 2 min 0 min 391 W/m 41,8 km/h (6 Bft) 100,00 %
23.03.2020 09:06 3,0 C 5,6 C 3,3 C 53 % 1034,1 hPa 0,0 l/m 2 min 0 min 396 W/m 25,7 km/h (4 Bft) 100,00 %
23.03.2020 09:08 3,1 C 5,6 C 5,0 C 52 % 1034,2 hPa 0,0 l/m 2 min 0 min 404 W/m 45,1 km/h (6 Bft) 97,87 %
23.03.2020 09:10 3,1 C 6,1 C 6,1 C 52 % 1034,2 hPa 0,0 l/m 2 min 0 min 409 W/m 38,6 km/h (5 Bft) 100,00 %
23.03.2020 09:12 3,2 C 6,1 C 6,7 C 52 % 1034,2 hPa 0,0 l/m 2 min 0 min 414 W/m 22,5 km/h (4 Bft) 100,00 %
23.03.2020 09:14 3,3 C 6,1 C 6,7 C 51 % 1034,1 hPa 0,0 l/m 2 min 0 min 419 W/m 25,7 km/h (4 Bft) 100,00 %
23.03.2020 09:16 3,3 C 6,1 C 6,7 C 51 % 1034,1 hPa 0,0 l/m 2 min 0 min 425 W/m 48,3 km/h (6 Bft) 100,00 %
23.03.2020 09:18 3,3 C 6,1 C 6,7 C 51 % 1034,1 hPa 0,0 l/m 2 min 0 min 430 W/m 25,7 km/h (4 Bft) 97,83 %
23.03.2020 09:20 3,4 C 6,7 C 7,2 C 52 % 1034,2 hPa 0,0 l/m 2 min 0 min 436 W/m 29,0 km/h (5 Bft) 97,87 %
23.03.2020 09:22 3,5 C 6,7 C 7,2 C 52 % 1034,2 hPa 0,0 l/m 2 min 0 min 440 W/m 29,0 km/h (5 Bft) 97,87 %
23.03.2020 09:24 3,6 C 6,7 C 6,7 C 51 % 1034,2 hPa 0,0 l/m 2 min 0 min 447 W/m 22,5 km/h (4 Bft) 97,87 %
23.03.2020 09:26 3,6 C 6,7 C 7,2 C 50 % 1034,2 hPa 0,0 l/m 2 min 0 min 453 W/m 29,0 km/h (5 Bft) 100,00 %
23.03.2020 09:28 3,7 C 6,7 C 7,8 C 51 % 1034,2 hPa 0,0 l/m 2 min 0 min 457 W/m 29,0 km/h (5 Bft) 100,00 %
23.03.2020 09:30 3,7 C 6,7 C 7,2 C 50 % 1034,2 hPa 0,0 l/m 2 min 0 min 463 W/m 32,2 km/h (5 Bft) 100,00 %
23.03.2020 09:32 3,8 C 6,7 C 6,7 C 49 % 1034,2 hPa 0,0 l/m 2 min 0 min 468 W/m 48,3 km/h (6 Bft) 97,87 %
23.03.2020 09:34 3,8 C 6,7 C 7,2 C 49 % 1034,2 hPa 0,0 l/m 2 min 0 min 474 W/m 35,4 km/h (5 Bft) 100,00 %
23.03.2020 09:36 3,8 C 6,7 C 7,2 C 49 % 1034,2 hPa 0,0 l/m 2 min 0 min 480 W/m 29,0 km/h (5 Bft) 100,00 %
23.03.2020 09:38 3,9 C 6,7 C 7,8 C 49 % 1034,2 hPa 0,0 l/m 2 min 0 min 484 W/m 41,8 km/h (6 Bft) 100,00 %
23.03.2020 09:40 3,9 C 7,2 C 8,3 C 48 % 1034,2 hPa 0,0 l/m 2 min 0 min 490 W/m 35,4 km/h (5 Bft) 100,00 %
23.03.2020 09:42 4,0 C 7,2 C 7,2 C 49 % 1034,2 hPa 0,0 l/m 2 min 0 min 496 W/m 22,5 km/h (4 Bft) 100,00 %
23.03.2020 09:44 4,0 C 6,7 C 7,2 C 49 % 1034,2 hPa 0,0 l/m 2 min 0 min 502 W/m 35,4 km/h (5 Bft) 100,00 %
23.03.2020 09:46 4,1 C 7,2 C 6,7 C 48 % 1034,2 hPa 0,0 l/m 2 min 0 min 506 W/m 29,0 km/h (5 Bft) 100,00 %
23.03.2020 09:48 4,1 C 7,2 C 7,2 C 48 % 1034,2 hPa 0,0 l/m 2 min 0 min 513 W/m 35,4 km/h (5 Bft) 100,00 %
23.03.2020 09:50 4,1 C 7,2 C 6,7 C 48 % 1034,1 hPa 0,0 l/m 2 min 0 min 518 W/m 38,6 km/h (5 Bft) 100,00 %
23.03.2020 09:52 4,2 C 7,2 C 5,6 C 48 % 1034,2 hPa 0,0 l/m 2 min 0 min 522 W/m 35,4 km/h (5 Bft) 100,00 %
23.03.2020 09:54 4,2 C 6,7 C 4,4 C 47 % 1034,2 hPa 0,0 l/m 2 min 0 min 528 W/m 41,8 km/h (6 Bft) 97,87 %
23.03.2020 09:56 4,3 C 7,8 C 3,9 C 48 % 1034,2 hPa 0,0 l/m 2 min 0 min 534 W/m 19,3 km/h (3 Bft) 100,00 %
23.03.2020 09:58 4,4 C 8,3 C 3,9 C 48 % 1034,2 hPa 0,0 l/m 2 min 0 min 539 W/m 6,4 km/h (2 Bft) 100,00 %
23.03.2020 10:00 4,4 C 8,3 C 3,9 C 48 % 1034,1 hPa 0,0 l/m 2 min 0 min 544 W/m 16,1 km/h (3 Bft) 100,00 %
23.03.2020 10:02 4,6 C 8,3 C 3,9 C 48 % 1034,2 hPa 0,0 l/m 2 min 0 min 548 W/m 25,7 km/h (4 Bft) 95,74 %
23.03.2020 10:04 4,6 C 7,8 C 3,9 C 47 % 1034,2 hPa 0,0 l/m 2 min 0 min 554 W/m 22,5 km/h (4 Bft) 100,00 %
23.03.2020 10:06 4,6 C 8,3 C 3,9 C 47 % 1034,2 hPa 0,0 l/m 2 min 0 min 560 W/m 25,7 km/h (4 Bft) 100,00 %
23.03.2020 10:08 4,7 C 8,3 C 3,9 C 47 % 1034,2 hPa 0,0 l/m 2 min 0 min 563 W/m 22,5 km/h (4 Bft) 100,00 %
23.03.2020 10:10 4,7 C 8,9 C 3,9 C 46 % 1034,1 hPa 0,0 l/m 2 min 0 min 567 W/m 19,3 km/h (3 Bft) 97,87 %
23.03.2020 10:12 4,8 C 8,9 C 3,9 C 46 % 1034,1 hPa 0,0 l/m 2 min 0 min 572 W/m 16,1 km/h (3 Bft) 93,62 %
23.03.2020 10:14 4,9 C 8,9 C 3,9 C 46 % 1034,0 hPa 0,0 l/m 2 min 0 min 576 W/m 32,2 km/h (5 Bft) 100,00 %
23.03.2020 10:16 4,9 C 8,3 C 3,9 C 44 % 1034,1 hPa 0,0 l/m 2 min 0 min 579 W/m 35,4 km/h (5 Bft) 95,65 %
23.03.2020 10:18 4,9 C 8,3 C 3,9 C 44 % 1034,0 hPa 0,0 l/m 2 min 0 min 584 W/m 22,5 km/h (4 Bft) 100,00 %
23.03.2020 10:20 5,1 C 8,3 C 3,9 C 44 % 1034,0 hPa 0,0 l/m 2 min 0 min 590 W/m 25,7 km/h (4 Bft) 100,00 %
23.03.2020 10:22 5,1 C 8,3 C 3,9 C 44 % 1034,0 hPa 0,0 l/m 2 min 0 min 594 W/m 32,2 km/h (5 Bft) 100,00 %
23.03.2020 10:24 5,2 C 8,9 C 4,4 C 44 % 1034,0 hPa 0,0 l/m 2 min 0 min 598 W/m 22,5 km/h (4 Bft) 97,87 %
23.03.2020 10:26 5,2 C 8,3 C 3,9 C 43 % 1033,9 hPa 0,0 l/m 2 min 0 min 602 W/m 32,2 km/h (5 Bft) 93,62 %
23.03.2020 10:28 5,3 C 8,9 C 3,9 C 42 % 1033,9 hPa 0,0 l/m 2 min 0 min 605 W/m 25,7 km/h (4 Bft) 97,83 %
23.03.2020 10:30 5,3 C 8,3 C 3,9 C 43 % 1033,9 hPa 0,0 l/m 2 min 0 min 608 W/m 29,0 km/h (5 Bft) 97,87 %
23.03.2020 10:32 5,3 C 8,9 C 4,4 C 43 % 1033,9 hPa 0,0 l/m 2 min 0 min 612 W/m 38,6 km/h (5 Bft) 97,87 %
23.03.2020 10:34 5,3 C 8,9 C 4,4 C 43 % 1033,9 hPa 0,0 l/m 2 min 0 min 618 W/m 45,1 km/h (6 Bft) 97,87 %
23.03.2020 10:36 5,3 C 8,3 C 4,4 C 42 % 1033,9 hPa 0,0 l/m 2 min 0 min 622 W/m 45,1 km/h (6 Bft) 93,62 %
23.03.2020 10:38 5,4 C 8,3 C 4,4 C 42 % 1033,9 hPa 0,0 l/m 2 min 0 min 624 W/m 32,2 km/h (5 Bft) 95,74 %
23.03.2020 10:40 5,4 C 8,3 C 4,4 C 42 % 1033,8 hPa 0,0 l/m 2 min 0 min 628 W/m 35,4 km/h (5 Bft) 97,83 %
23.03.2020 10:42 5,4 C 8,9 C 4,4 C 42 % 1033,8 hPa 0,0 l/m 2 min 0 min 633 W/m 32,2 km/h (5 Bft) 95,74 %
23.03.2020 10:44 5,5 C 9,4 C 4,4 C 43 % 1033,8 hPa 0,0 l/m 2 min 0 min 637 W/m 29,0 km/h (5 Bft) 97,87 %
23.03.2020 10:46 5,6 C 9,4 C 4,4 C 43 % 1033,9 hPa 0,0 l/m 2 min 0 min 642 W/m 35,4 km/h (5 Bft) 93,62 %
23.03.2020 10:48 5,7 C 8,9 C 4,4 C 42 % 1033,8 hPa 0,0 l/m 2 min 0 min 646 W/m 32,2 km/h (5 Bft) 97,87 %
23.03.2020 10:50 5,7 C 8,9 C 4,4 C 41 % 1033,9 hPa 0,0 l/m 2 min 0 min 650 W/m 38,6 km/h (5 Bft) 97,87 %
23.03.2020 10:52 5,7 C 8,9 C 4,4 C 41 % 1033,8 hPa 0,0 l/m 2 min 0 min 655 W/m 38,6 km/h (5 Bft) 95,65 %
23.03.2020 10:54 5,8 C 8,9 C 4,4 C 41 % 1033,9 hPa 0,0 l/m 2 min 0 min 658 W/m 25,7 km/h (4 Bft) 95,74 %
23.03.2020 10:56 5,8 C 9,4 C 4,4 C 41 % 1033,8 hPa 0,0 l/m 2 min 0 min 660 W/m 48,3 km/h (6 Bft) 97,87 %
23.03.2020 10:58 5,8 C 9,4 C 5,0 C 41 % 1033,9 hPa 0,0 l/m 2 min 0 min 664 W/m 29,0 km/h (5 Bft) 93,62 %
23.03.2020 11:00 5,9 C 9,4 C 5,0 C 40 % 1033,8 hPa 0,0 l/m 2 min 0 min 666 W/m 29,0 km/h (5 Bft) 95,74 %
23.03.2020 11:02 6,0 C 9,4 C 5,0 C 40 % 1033,8 hPa 0,0 l/m 2 min 0 min 669 W/m 19,3 km/h (3 Bft) 98,21 %
23.03.2020 11:04 6,1 C 9,4 C 5,0 C 40 % 1033,9 hPa 0,0 l/m 2 min 0 min 671 W/m 25,7 km/h (4 Bft) 97,87 %
23.03.2020 11:06 6,1 C 9,4 C 5,0 C 40 % 1033,8 hPa 0,0 l/m 2 min 0 min 674 W/m 38,6 km/h (5 Bft) 95,65 %
23.03.2020 11:08 6,1 C 9,4 C 5,0 C 40 % 1033,8 hPa 0,0 l/m 2 min 0 min 676 W/m 29,0 km/h (5 Bft) 97,87 %
23.03.2020 11:10 6,2 C 10,0 C 5,0 C 40 % 1033,8 hPa 0,0 l/m 2 min 0 min 679 W/m 35,4 km/h (5 Bft) 100,00 %
23.03.2020 11:12 6,2 C 10,0 C 5,0 C 40 % 1033,9 hPa 0,0 l/m 2 min 0 min 681 W/m 29,0 km/h (5 Bft) 97,87 %
23.03.2020 11:14 6,3 C 10,0 C 5,0 C 40 % 1033,9 hPa 0,0 l/m 2 min 0 min 685 W/m 29,0 km/h (5 Bft) 97,87 %
23.03.2020 11:16 6,3 C 10,0 C 5,0 C 39 % 1033,9 hPa 0,0 l/m 2 min 0 min 689 W/m 25,7 km/h (4 Bft) 97,87 %
23.03.2020 11:18 6,3 C 9,4 C 5,0 C 39 % 1033,8 hPa 0,0 l/m 2 min 0 min 690 W/m 45,1 km/h (6 Bft) 97,83 %
23.03.2020 11:20 6,4 C 10,0 C 5,6 C 39 % 1033,8 hPa 0,0 l/m 2 min 0 min 691 W/m 38,6 km/h (5 Bft) 97,87 %
23.03.2020 11:22 6,4 C 10,0 C 5,6 C 39 % 1033,8 hPa 0,0 l/m 2 min 0 min 693 W/m 32,2 km/h (5 Bft) 97,87 %
23.03.2020 11:24 6,5 C 10,0 C 5,6 C 38 % 1033,8 hPa 0,0 l/m 2 min 0 min 696 W/m 16,1 km/h (3 Bft) 97,87 %
23.03.2020 11:26 6,5 C 10,6 C 5,6 C 39 % 1033,8 hPa 0,0 l/m 2 min 0 min 698 W/m 19,3 km/h (3 Bft) 95,74 %
23.03.2020 11:28 6,6 C 11,1 C 6,1 C 40 % 1033,8 hPa 0,0 l/m 2 min 0 min 699 W/m 0,0 km/h (0 Bft) 95,74 %
23.03.2020 11:30 6,7 C 11,1 C 6,1 C 39 % 1033,8 hPa 0,0 l/m 2 min 0 min 702 W/m 19,3 km/h (3 Bft) 95,65 %
23.03.2020 11:32 6,8 C 11,1 C 6,1 C 39 % 1033,8 hPa 0,0 l/m 2 min 0 min 706 W/m 25,7 km/h (4 Bft) 97,87 %
23.03.2020 11:34 6,9 C 11,7 C 6,1 C 40 % 1033,8 hPa 0,0 l/m 2 min 0 min 709 W/m 25,7 km/h (4 Bft) 95,74 %
23.03.2020 11:36 6,9 C 11,1 C 6,1 C 39 % 1033,8 hPa 0,0 l/m 2 min 0 min 709 W/m 29,0 km/h (5 Bft) 97,87 %
23.03.2020 11:38 7,0 C 11,1 C 6,7 C 39 % 1033,8 hPa 0,0 l/m 2 min 0 min 711 W/m 19,3 km/h (3 Bft) 95,74 %
23.03.2020 11:40 7,1 C 11,1 C 6,7 C 39 % 1033,8 hPa 0,0 l/m 2 min 0 min 714 W/m 16,1 km/h (3 Bft) 97,87 %
23.03.2020 11:42 7,1 C 11,1 C 6,7 C 39 % 1033,8 hPa 0,0 l/m 2 min 0 min 717 W/m 29,0 km/h (5 Bft) 97,83 %
23.03.2020 11:44 7,1 C 11,1 C 6,7 C 39 % 1033,8 hPa 0,0 l/m 2 min 0 min 720 W/m 12,9 km/h (3 Bft) 95,74 %
23.03.2020 11:46 7,1 C 10,6 C 6,1 C 38 % 1033,7 hPa 0,0 l/m 2 min 0 min 720 W/m 32,2 km/h (5 Bft) 95,74 %
23.03.2020 11:48 7,1 C 11,7 C 6,7 C 39 % 1033,7 hPa 0,0 l/m 2 min 0 min 722 W/m 16,1 km/h (3 Bft) 95,74 %
23.03.2020 11:50 7,2 C 11,1 C 6,7 C 39 % 1033,7 hPa 0,0 l/m 2 min 0 min 724 W/m 22,5 km/h (4 Bft) 95,74 %
23.03.2020 11:52 7,2 C 11,1 C 6,7 C 38 % 1033,7 hPa 0,0 l/m 2 min 0 min 726 W/m 32,2 km/h (5 Bft) 97,87 %
23.03.2020 11:54 7,3 C 11,1 C 6,7 C 38 % 1033,8 hPa 0,0 l/m 2 min 0 min 728 W/m 12,9 km/h (3 Bft) 97,83 %
23.03.2020 11:56 7,4 C 11,7 C 7,2 C 39 % 1033,7 hPa 0,0 l/m 2 min 0 min 729 W/m 19,3 km/h (3 Bft) 95,74 %
23.03.2020 11:58 7,4 C 11,1 C 7,2 C 38 % 1033,7 hPa 0,0 l/m 2 min 0 min 730 W/m 29,0 km/h (5 Bft) 97,87 %
23.03.2020 12:00 7,5 C 10,6 C 6,7 C 37 % 1033,7 hPa 0,0 l/m 2 min 0 min 731 W/m 35,4 km/h (5 Bft) 97,87 %
23.03.2020 12:02 7,6 C 10,6 C 6,7 C 36 % 1033,7 hPa 0,0 l/m 2 min 0 min 734 W/m 22,5 km/h (4 Bft) 97,87 %
23.03.2020 12:04 7,6 C 10,6 C 7,2 C 37 % 1033,7 hPa 0,0 l/m 2 min 0 min 736 W/m 19,3 km/h (3 Bft) 100,00 %
23.03.2020 12:08 7,7 C 11,1 C 7,2 C 38 % 1033,7 hPa 0,0 l/m 4 min 0 min 736 W/m 35,4 km/h (5 Bft) 100,00 %
23.03.2020 12:10 7,7 C 11,1 C 7,2 C 38 % 1033,7 hPa 0,0 l/m 2 min 0 min 736 W/m 25,7 km/h (4 Bft) 100,00 %
23.03.2020 12:12 7,8 C 11,1 C 7,8 C 38 % 1033,7 hPa 0,0 l/m 2 min 0 min 737 W/m 25,7 km/h (4 Bft) 97,87 %
23.03.2020 12:14 7,8 C 11,7 C 7,8 C 38 % 1033,7 hPa 0,0 l/m 2 min 0 min 737 W/m 22,5 km/h (4 Bft) 100,00 %
23.03.2020 12:16 7,9 C 12,2 C 7,8 C 38 % 1033,7 hPa 0,0 l/m 2 min 0 min 738 W/m 12,9 km/h (3 Bft) 97,83 %
23.03.2020 12:18 7,9 C 12,2 C 7,8 C 38 % 1033,7 hPa 0,0 l/m 2 min 0 min 740 W/m 32,2 km/h (5 Bft) 100,00 %
23.03.2020 12:20 8,1 C 12,2 C 7,8 C 38 % 1033,7 hPa 0,0 l/m 2 min 0 min 741 W/m 25,7 km/h (4 Bft) 100,00 %
23.03.2020 12:22 8,1 C 12,2 C 7,8 C 38 % 1033,7 hPa 0,0 l/m 2 min 0 min 742 W/m 3,2 km/h (1 Bft) 100,00 %
23.03.2020 12:24 8,1 C 12,2 C 7,8 C 37 % 1033,7 hPa 0,0 l/m 2 min 0 min 743 W/m 16,1 km/h (3 Bft) 100,00 %
23.03.2020 12:26 8,1 C 12,2 C 7,8 C 37 % 1033,6 hPa 0,0 l/m 2 min 0 min 745 W/m 19,3 km/h (3 Bft) 100,00 %
23.03.2020 12:28 8,2 C 11,7 C 8,3 C 38 % 1033,6 hPa 0,0 l/m 2 min 0 min 745 W/m 25,7 km/h (4 Bft) 100,00 %
23.03.2020 12:30 8,2 C 12,2 C 8,3 C 37 % 1033,6 hPa 0,0 l/m 2 min 0 min 746 W/m 16,1 km/h (3 Bft) 100,00 %
23.03.2020 12:32 8,3 C 11,7 C 8,3 C 37 % 1033,6 hPa 0,0 l/m 2 min 0 min 746 W/m 16,1 km/h (3 Bft) 100,00 %
23.03.2020 12:34 8,3 C 12,2 C 8,3 C 37 % 1033,7 hPa 0,0 l/m 2 min 0 min 745 W/m 25,7 km/h (4 Bft) 100,00 %
23.03.2020 12:36 8,4 C 12,2 C 8,9 C 37 % 1033,6 hPa 0,0 l/m 2 min 0 min 747 W/m 19,3 km/h (3 Bft) 100,00 %
23.03.2020 12:38 8,4 C 12,2 C 8,9 C 37 % 1033,7 hPa 0,0 l/m 2 min 0 min 747 W/m 16,1 km/h (3 Bft) 97,87 %
23.03.2020 12:40 8,5 C 11,7 C 10,0 C 36 % 1033,6 hPa 0,0 l/m 2 min 0 min 750 W/m 19,3 km/h (3 Bft) 100,00 %
23.03.2020 12:42 8,6 C 12,2 C 12,2 C 37 % 1033,6 hPa 0,0 l/m 2 min 0 min 748 W/m 6,4 km/h (2 Bft) 97,87 %
23.03.2020 12:44 8,6 C 12,8 C 13,3 C 37 % 1033,6 hPa 0,0 l/m 2 min 0 min 749 W/m 6,4 km/h (2 Bft) 100,00 %
23.03.2020 12:46 8,6 C 12,2 C 12,8 C 37 % 1033,6 hPa 0,0 l/m 2 min 0 min 751 W/m 16,1 km/h (3 Bft) 95,74 %
23.03.2020 12:48 8,7 C 12,8 C 13,9 C 37 % 1033,6 hPa 0,0 l/m 2 min 0 min 751 W/m 3,2 km/h (1 Bft) 100,00 %
23.03.2020 12:50 8,8 C 13,3 C 14,4 C 38 % 1033,6 hPa 0,0 l/m 2 min 0 min 751 W/m 12,9 km/h (3 Bft) 97,87 %
23.03.2020 12:52 8,8 C 12,8 C 13,9 C 37 % 1033,6 hPa 0,0 l/m 2 min 0 min 750 W/m 3,2 km/h (1 Bft) 97,83 %
23.03.2020 12:54 8,9 C 12,8 C 13,9 C 36 % 1033,6 hPa 0,0 l/m 2 min 0 min 748 W/m 6,4 km/h (2 Bft) 85,11 %
23.03.2020 12:56 8,9 C 12,8 C 14,4 C 37 % 1033,5 hPa 0,0 l/m 2 min 0 min 747 W/m 12,9 km/h (3 Bft) 65,22 %
23.03.2020 12:58 8,9 C 12,8 C 14,4 C 36 % 1033,5 hPa 0,0 l/m 2 min 0 min 746 W/m 19,3 km/h (3 Bft) 97,87 %
23.03.2020 13:00 9,0 C 12,8 C 14,4 C 36 % 1033,5 hPa 0,0 l/m 2 min 0 min 745 W/m 22,5 km/h (4 Bft) 97,87 %
23.03.2020 13:02 9,0 C 12,2 C 13,9 C 36 % 1033,5 hPa 0,0 l/m 2 min 0 min 744 W/m 22,5 km/h (4 Bft) 97,83 %
23.03.2020 13:04 9,1 C 12,2 C 13,9 C 36 % 1033,5 hPa 0,0 l/m 2 min 0 min 744 W/m 25,7 km/h (4 Bft) 97,87 %
23.03.2020 13:06 9,1 C 12,8 C 13,9 C 35 % 1033,5 hPa 0,0 l/m 2 min 0 min 743 W/m 22,5 km/h (4 Bft) 97,87 %
23.03.2020 13:08 9,1 C 12,8 C 14,4 C 35 % 1033,4 hPa 0,0 l/m 2 min 0 min 743 W/m 22,5 km/h (4 Bft) 95,74 %
23.03.2020 13:10 9,1 C 13,3 C 15,0 C 37 % 1033,4 hPa 0,0 l/m 2 min 0 min 741 W/m 3,2 km/h (1 Bft) 97,87 %
23.03.2020 13:12 9,2 C 12,8 C 13,9 C 36 % 1033,4 hPa 0,0 l/m 2 min 0 min 744 W/m 19,3 km/h (3 Bft) 95,74 %
23.03.2020 13:14 9,2 C 12,8 C 13,9 C 35 % 1033,4 hPa 0,0 l/m 2 min 0 min 741 W/m 19,3 km/h (3 Bft) 97,83 %
23.03.2020 13:16 9,2 C 12,2 C 13,9 C 34 % 1033,4 hPa 0,0 l/m 2 min 0 min 740 W/m 22,5 km/h (4 Bft) 95,74 %
23.03.2020 13:18 9,1 C 11,7 C 13,3 C 35 % 1033,3 hPa 0,0 l/m 2 min 0 min 738 W/m 25,7 km/h (4 Bft) 97,87 %
23.03.2020 13:20 9,1 C 12,8 C 13,9 C 36 % 1033,3 hPa 0,0 l/m 2 min 0 min 739 W/m 3,2 km/h (1 Bft) 95,74 %
23.03.2020 13:22 9,1 C 13,3 C 15,0 C 36 % 1033,3 hPa 0,0 l/m 2 min 0 min 736 W/m 6,4 km/h (2 Bft) 97,22 %
23.03.2020 13:24 9,2 C 13,9 C 15,6 C 37 % 1033,3 hPa 0,0 l/m 2 min 0 min 734 W/m 6,4 km/h (2 Bft) 93,62 %
23.03.2020 13:26 9,3 C 14,4 C 13,9 C 37 % 1033,3 hPa 0,0 l/m 2 min 0 min 733 W/m 3,2 km/h (1 Bft) 95,74 %
23.03.2020 13:28 9,4 C 13,3 C 12,2 C 36 % 1033,3 hPa 0,0 l/m 2 min 0 min 732 W/m 6,4 km/h (2 Bft) 95,74 %
23.03.2020 13:30 9,4 C 13,3 C 11,1 C 35 % 1033,3 hPa 0,0 l/m 2 min 0 min 731 W/m 19,3 km/h (3 Bft) 97,83 %
23.03.2020 13:32 9,4 C 12,8 C 11,1 C 35 % 1033,3 hPa 0,0 l/m 2 min 0 min 732 W/m 19,3 km/h (3 Bft) 93,62 %
23.03.2020 13:34 9,4 C 13,3 C 10,6 C 35 % 1033,2 hPa 0,0 l/m 2 min 0 min 731 W/m 6,4 km/h (2 Bft) 97,87 %
23.03.2020 13:36 9,4 C 13,3 C 10,0 C 35 % 1033,2 hPa 0,0 l/m 2 min 0 min 729 W/m 19,3 km/h (3 Bft) 89,36 %
23.03.2020 13:38 9,5 C 13,3 C 10,6 C 35 % 1033,2 hPa 0,0 l/m 2 min 0 min 730 W/m 9,7 km/h (2 Bft) 97,87 %
23.03.2020 13:40 9,6 C 13,9 C 10,6 C 34 % 1033,1 hPa 0,0 l/m 2 min 0 min 726 W/m 6,4 km/h (2 Bft) 100,00 %
23.03.2020 13:42 9,6 C 13,3 C 10,0 C 34 % 1033,1 hPa 0,0 l/m 2 min 0 min 724 W/m 0,0 km/h (0 Bft) 97,87 %
23.03.2020 13:44 9,6 C 13,3 C 10,0 C 35 % 1033,1 hPa 0,0 l/m 2 min 0 min 724 W/m 19,3 km/h (3 Bft) 100,00 %
23.03.2020 13:46 9,7 C 13,9 C 10,6 C 36 % 1033,0 hPa 0,0 l/m 2 min 0 min 720 W/m 3,2 km/h (1 Bft) 97,87 %
23.03.2020 13:48 9,8 C 13,3 C 10,0 C 34 % 1032,9 hPa 0,0 l/m 2 min 0 min 716 W/m 6,4 km/h (2 Bft) 95,74 %
23.03.2020 13:50 9,8 C 13,3 C 10,0 C 35 % 1032,8 hPa 0,0 l/m 2 min 0 min 715 W/m 9,7 km/h (2 Bft) 97,87 %
23.03.2020 13:52 9,8 C 13,3 C 10,0 C 35 % 1032,9 hPa 0,0 l/m 2 min 0 min 714 W/m 16,1 km/h (3 Bft) 97,87 %
23.03.2020 13:54 9,9 C 13,9 C 10,0 C 34 % 1032,9 hPa 0,0 l/m 2 min 0 min 711 W/m 12,9 km/h (3 Bft) 100,00 %
23.03.2020 13:56 9,9 C 13,3 C 10,0 C 34 % 1032,8 hPa 0,0 l/m 2 min 0 min 708 W/m 19,3 km/h (3 Bft) 95,74 %
23.03.2020 13:58 9,9 C 13,3 C 10,6 C 34 % 1032,8 hPa 0,0 l/m 2 min 0 min 707 W/m 12,9 km/h (3 Bft) 85,11 %
23.03.2020 14:00 9,9 C 13,3 C 10,0 C 34 % 1032,9 hPa 0,0 l/m 2 min 0 min 702 W/m 12,9 km/h (3 Bft) 95,74 %
23.03.2020 14:02 9,9 C 13,9 C 10,0 C 35 % 1032,9 hPa 0,0 l/m 2 min 0 min 699 W/m 12,9 km/h (3 Bft) 93,62 %
23.03.2020 14:04 9,9 C 13,3 C 10,0 C 34 % 1032,8 hPa 0,0 l/m 2 min 0 min 695 W/m 19,3 km/h (3 Bft) 95,45 %
23.03.2020 14:06 9,9 C 13,9 C 10,0 C 34 % 1032,8 hPa 0,0 l/m 2 min 0 min 695 W/m 6,4 km/h (2 Bft) 93,62 %
23.03.2020 14:08 9,9 C 12,8 C 10,0 C 34 % 1032,8 hPa 0,0 l/m 2 min 0 min 692 W/m 22,5 km/h (4 Bft) 93,62 %
23.03.2020 14:10 9,9 C 13,3 C 10,0 C 34 % 1032,8 hPa 0,0 l/m 2 min 0 min 689 W/m 29,0 km/h (5 Bft) 93,48 %
23.03.2020 14:12 10,0 C 13,3 C 10,0 C 34 % 1032,8 hPa 0,0 l/m 2 min 0 min 686 W/m 25,7 km/h (4 Bft) 95,74 %
23.03.2020 14:14 10,0 C 12,8 C 10,0 C 34 % 1032,8 hPa 0,0 l/m 2 min 0 min 685 W/m 35,4 km/h (5 Bft) 95,74 %
23.03.2020 14:16 10,0 C 12,8 C 10,0 C 34 % 1032,8 hPa 0,0 l/m 2 min 0 min 682 W/m 3,2 km/h (1 Bft) 95,74 %
23.03.2020 14:18 10,0 C 12,8 C 10,0 C 33 % 1032,8 hPa 0,0 l/m 2 min 0 min 679 W/m 25,7 km/h (4 Bft) 93,62 %
23.03.2020 14:20 10,0 C 12,8 C 10,0 C 34 % 1032,7 hPa 0,0 l/m 2 min 0 min 674 W/m 25,7 km/h (4 Bft) 93,62 %
23.03.2020 14:22 10,0 C 13,3 C 10,0 C 34 % 1032,8 hPa 0,0 l/m 2 min 0 min 671 W/m 29,0 km/h (5 Bft) 93,48 %
23.03.2020 14:24 10,0 C 13,3 C 10,0 C 33 % 1032,7 hPa 0,0 l/m 2 min 0 min 668 W/m 16,1 km/h (3 Bft) 95,74 %
23.03.2020 14:26 10,0 C 13,3 C 10,6 C 34 % 1032,7 hPa 0,0 l/m 2 min 0 min 664 W/m 12,9 km/h (3 Bft) 95,74 %
23.03.2020 14:28 10,1 C 13,3 C 10,6 C 34 % 1032,7 hPa 0,0 l/m 2 min 0 min 660 W/m 22,5 km/h (4 Bft) 91,49 %
23.03.2020 14:30 10,1 C 13,3 C 10,6 C 35 % 1032,7 hPa 0,0 l/m 2 min 0 min 658 W/m 12,9 km/h (3 Bft) 95,74 %
23.03.2020 14:32 10,2 C 13,3 C 10,6 C 35 % 1032,6 hPa 0,0 l/m 2 min 0 min 654 W/m 12,9 km/h (3 Bft) 93,48 %
23.03.2020 14:34 10,2 C 12,8 C 10,0 C 33 % 1032,6 hPa 0,0 l/m 2 min 0 min 653 W/m 22,5 km/h (4 Bft) 95,74 %
23.03.2020 14:36 10,2 C 12,8 C 10,0 C 33 % 1032,5 hPa 0,0 l/m 2 min 0 min 651 W/m 32,2 km/h (5 Bft) 93,62 %
23.03.2020 14:38 10,2 C 13,3 C 10,0 C 33 % 1032,5 hPa 0,0 l/m 2 min 0 min 647 W/m 22,5 km/h (4 Bft) 93,62 %
23.03.2020 14:40 10,2 C 13,9 C 11,7 C 34 % 1032,5 hPa 0,0 l/m 2 min 0 min 644 W/m 12,9 km/h (3 Bft) 95,74 %
23.03.2020 14:42 10,3 C 13,9 C 11,1 C 34 % 1032,4 hPa 0,0 l/m 2 min 0 min 641 W/m 16,1 km/h (3 Bft) 100,00 %
23.03.2020 14:44 10,3 C 13,9 C 10,6 C 33 % 1032,4 hPa 0,0 l/m 2 min 0 min 637 W/m 19,3 km/h (3 Bft) 100,00 %
23.03.2020 14:46 10,3 C 13,9 C 10,6 C 33 % 1032,4 hPa 0,0 l/m 2 min 0 min 633 W/m 16,1 km/h (3 Bft) 100,00 %
23.03.2020 14:48 10,4 C 13,3 C 10,6 C 34 % 1032,5 hPa 0,0 l/m 2 min 0 min 628 W/m 16,1 km/h (3 Bft) 97,87 %
23.03.2020 14:50 10,4 C 13,9 C 10,6 C 33 % 1032,5 hPa 0,0 l/m 2 min 0 min 625 W/m 12,9 km/h (3 Bft) 100,00 %
23.03.2020 14:52 10,4 C 13,3 C 10,6 C 33 % 1032,5 hPa 0,0 l/m 2 min 0 min 620 W/m 6,4 km/h (2 Bft) 100,00 %
23.03.2020 14:54 10,4 C 13,9 C 10,6 C 33 % 1032,5 hPa 0,0 l/m 2 min 0 min 617 W/m 12,9 km/h (3 Bft) 97,87 %
23.03.2020 14:56 10,4 C 13,9 C 10,6 C 34 % 1032,5 hPa 0,0 l/m 2 min 0 min 612 W/m 3,2 km/h (1 Bft) 97,83 %
23.03.2020 14:58 10,4 C 13,3 C 10,6 C 34 % 1032,4 hPa 0,0 l/m 2 min 0 min 610 W/m 6,4 km/h (2 Bft) 97,87 %
23.03.2020 15:00 10,5 C 13,9 C 10,6 C 33 % 1032,4 hPa 0,0 l/m 2 min 0 min 605 W/m 6,4 km/h (2 Bft) 97,87 %
23.03.2020 15:02 10,5 C 13,9 C 11,1 C 34 % 1032,4 hPa 0,0 l/m 2 min 0 min 601 W/m 6,4 km/h (2 Bft) 100,00 %
23.03.2020 15:04 10,5 C 13,9 C 10,6 C 33 % 1032,2 hPa 0,0 l/m 2 min 0 min 598 W/m 12,9 km/h (3 Bft) 100,00 %
23.03.2020 15:06 10,6 C 13,9 C 10,6 C 33 % 1032,3 hPa 0,0 l/m 2 min 0 min 591 W/m 6,4 km/h (2 Bft) 100,00 %
23.03.2020 15:08 10,6 C 13,3 C 10,6 C 33 % 1032,3 hPa 0,0 l/m 2 min 0 min 588 W/m 3,2 km/h (1 Bft) 100,00 %
23.03.2020 15:10 10,6 C 13,3 C 10,6 C 33 % 1032,2 hPa 0,0 l/m 2 min 0 min 584 W/m 25,7 km/h (4 Bft) 97,87 %
23.03.2020 15:12 10,6 C 13,9 C 10,6 C 33 % 1032,3 hPa 0,0 l/m 2 min 0 min 579 W/m 22,5 km/h (4 Bft) 100,00 %
23.03.2020 15:14 10,6 C 13,9 C 10,6 C 34 % 1032,2 hPa 0,0 l/m 2 min 0 min 575 W/m 29,0 km/h (5 Bft) 93,62 %
23.03.2020 15:16 10,6 C 13,3 C 10,6 C 34 % 1032,2 hPa 0,0 l/m 2 min 0 min 569 W/m 16,1 km/h (3 Bft) 97,87 %
23.03.2020 15:18 10,7 C 13,9 C 11,1 C 34 % 1032,2 hPa 0,0 l/m 2 min 0 min 566 W/m 0,0 km/h (0 Bft) 97,87 %
23.03.2020 15:20 10,7 C 14,4 C 11,1 C 34 % 1032,2 hPa 0,0 l/m 2 min 0 min 560 W/m 0,0 km/h (0 Bft) 95,65 %
23.03.2020 15:22 10,8 C 13,9 C 11,1 C 33 % 1032,3 hPa 0,0 l/m 2 min 0 min 555 W/m 16,1 km/h (3 Bft) 97,87 %
23.03.2020 15:24 10,8 C 13,3 C 10,6 C 33 % 1032,3 hPa 0,0 l/m 2 min 0 min 552 W/m 25,7 km/h (4 Bft) 95,74 %
23.03.2020 15:26 10,8 C 12,8 C 10,6 C 33 % 1032,3 hPa 0,0 l/m 2 min 0 min 547 W/m 35,4 km/h (5 Bft) 97,87 %
23.03.2020 15:28 10,7 C 12,8 C 10,6 C 32 % 1032,2 hPa 0,0 l/m 2 min 0 min 541 W/m 16,1 km/h (3 Bft) 97,87 %
23.03.2020 15:30 10,7 C 13,3 C 10,6 C 33 % 1032,2 hPa 0,0 l/m 2 min 0 min 537 W/m 19,3 km/h (3 Bft) 89,13 %
23.03.2020 15:32 10,7 C 12,8 C 10,6 C 32 % 1032,1 hPa 0,0 l/m 2 min 0 min 532 W/m 35,4 km/h (5 Bft) 93,62 %
23.03.2020 15:34 10,7 C 12,8 C 10,6 C 32 % 1032,1 hPa 0,0 l/m 2 min 0 min 527 W/m 22,5 km/h (4 Bft) 95,74 %
23.03.2020 15:36 10,6 C 12,8 C 10,0 C 31 % 1032,0 hPa 0,0 l/m 2 min 0 min 522 W/m 16,1 km/h (3 Bft) 95,74 %
23.03.2020 15:38 10,6 C 13,3 C 10,6 C 32 % 1032,0 hPa 0,0 l/m 2 min 0 min 518 W/m 12,9 km/h (3 Bft) 97,87 %
23.03.2020 15:40 10,6 C 12,8 C 10,6 C 32 % 1032,0 hPa 0,0 l/m 2 min 0 min 515 W/m 22,5 km/h (4 Bft) 95,74 %
23.03.2020 15:42 10,6 C 12,8 C 10,6 C 33 % 1032,0 hPa 0,0 l/m 2 min 0 min 510 W/m 35,4 km/h (5 Bft) 97,83 %
23.03.2020 15:44 10,7 C 12,8 C 10,6 C 33 % 1032,0 hPa 0,0 l/m 2 min 0 min 505 W/m 12,9 km/h (3 Bft) 93,62 %
23.03.2020 15:46 10,7 C 12,8 C 10,6 C 32 % 1032,0 hPa 0,0 l/m 2 min 0 min 500 W/m 25,7 km/h (4 Bft) 97,87 %
23.03.2020 15:48 10,7 C 12,8 C 11,1 C 32 % 1032,0 hPa 0,0 l/m 2 min 0 min 494 W/m 22,5 km/h (4 Bft) 93,62 %
23.03.2020 15:50 10,7 C 12,8 C 11,7 C 32 % 1032,0 hPa 0,0 l/m 2 min 0 min 488 W/m 12,9 km/h (3 Bft) 95,74 %
23.03.2020 15:52 10,6 C 12,2 C 11,1 C 32 % 1032,0 hPa 0,0 l/m 2 min 0 min 483 W/m 32,2 km/h (5 Bft) 97,87 %
23.03.2020 15:54 10,6 C 12,2 C 11,1 C 31 % 1031,9 hPa 0,0 l/m 2 min 0 min 478 W/m 3,2 km/h (1 Bft) 97,83 %
23.03.2020 15:56 10,6 C 12,8 C 11,1 C 32 % 1031,9 hPa 0,0 l/m 2 min 0 min 474 W/m 22,5 km/h (4 Bft) 97,87 %
23.03.2020 15:58 10,6 C 12,2 C 11,1 C 31 % 1031,9 hPa 0,0 l/m 2 min 0 min 469 W/m 19,3 km/h (3 Bft) 97,87 %
23.03.2020 16:00 10,5 C 12,8 C 12,2 C 31 % 1031,9 hPa 0,0 l/m 2 min 0 min 465 W/m 19,3 km/h (3 Bft) 97,87 %
23.03.2020 16:02 10,5 C 12,2 C 13,3 C 31 % 1032,0 hPa 0,0 l/m 2 min 0 min 460 W/m 19,3 km/h (3 Bft) 100,00 %
23.03.2020 16:04 10,4 C 12,8 C 13,3 C 32 % 1032,0 hPa 0,0 l/m 2 min 0 min 456 W/m 16,1 km/h (3 Bft) 100,00 %
23.03.2020 16:06 10,5 C 12,8 C 13,9 C 32 % 1032,0 hPa 0,0 l/m 2 min 0 min 452 W/m 19,3 km/h (3 Bft) 100,00 %
23.03.2020 16:08 10,5 C 12,8 C 13,3 C 32 % 1032,0 hPa 0,0 l/m 2 min 0 min 446 W/m 25,7 km/h (4 Bft) 95,74 %
23.03.2020 16:10 10,6 C 12,2 C 13,3 C 32 % 1031,9 hPa 0,0 l/m 2 min 0 min 440 W/m 29,0 km/h (5 Bft) 97,87 %
23.03.2020 16:12 10,6 C 12,8 C 14,4 C 32 % 1031,9 hPa 0,0 l/m 2 min 0 min 435 W/m 12,9 km/h (3 Bft) 100,00 %
23.03.2020 16:14 10,6 C 12,2 C 13,3 C 31 % 1031,8 hPa 0,0 l/m 2 min 0 min 429 W/m 12,9 km/h (3 Bft) 100,00 %
23.03.2020 16:16 10,5 C 12,2 C 12,8 C 31 % 1031,9 hPa 0,0 l/m 2 min 0 min 423 W/m 38,6 km/h (5 Bft) 100,00 %
23.03.2020 16:18 10,4 C 12,2 C 12,8 C 31 % 1031,8 hPa 0,0 l/m 2 min 0 min 416 W/m 35,4 km/h (5 Bft) 97,83 %
23.03.2020 16:20 10,4 C 12,2 C 11,7 C 31 % 1031,8 hPa 0,0 l/m 2 min 0 min 410 W/m 19,3 km/h (3 Bft) 95,74 %
23.03.2020 16:22 10,4 C 11,7 C 11,1 C 31 % 1031,9 hPa 0,0 l/m 2 min 0 min 406 W/m 22,5 km/h (4 Bft) 97,87 %
23.03.2020 16:24 10,4 C 12,2 C 12,2 C 32 % 1031,8 hPa 0,0 l/m 2 min 0 min 401 W/m 25,7 km/h (4 Bft) 100,00 %
23.03.2020 16:26 10,3 C 12,2 C 12,8 C 32 % 1031,8 hPa 0,0 l/m 2 min 0 min 395 W/m 25,7 km/h (4 Bft) 97,87 %
23.03.2020 16:28 10,4 C 12,2 C 12,2 C 32 % 1031,8 hPa 0,0 l/m 2 min 0 min 389 W/m 22,5 km/h (4 Bft) 100,00 %
23.03.2020 16:30 10,4 C 12,2 C 11,7 C 32 % 1031,8 hPa 0,0 l/m 2 min 0 min 383 W/m 12,9 km/h (3 Bft) 100,00 %
23.03.2020 16:32 10,4 C 12,2 C 10,6 C 33 % 1031,8 hPa 0,0 l/m 2 min 0 min 377 W/m 12,9 km/h (3 Bft) 95,74 %
23.03.2020 16:34 10,4 C 12,2 C 10,0 C 32 % 1031,8 hPa 0,0 l/m 2 min 0 min 371 W/m 25,7 km/h (4 Bft) 97,87 %
23.03.2020 16:36 10,4 C 12,2 C 10,0 C 33 % 1031,8 hPa 0,0 l/m 2 min 0 min 365 W/m 12,9 km/h (3 Bft) 97,87 %
23.03.2020 16:38 10,4 C 12,2 C 9,4 C 32 % 1031,9 hPa 0,0 l/m 2 min 0 min 359 W/m 16,1 km/h (3 Bft) 97,87 %
23.03.2020 16:40 10,3 C 12,2 C 9,4 C 32 % 1031,8 hPa 0,0 l/m 2 min 0 min 353 W/m 19,3 km/h (3 Bft) 93,48 %
23.03.2020 16:42 10,3 C 12,2 C 9,4 C 32 % 1031,8 hPa 0,0 l/m 2 min 0 min 347 W/m 22,5 km/h (4 Bft) 95,74 %
23.03.2020 16:44 10,3 C 12,2 C 8,9 C 32 % 1031,8 hPa 0,0 l/m 2 min 0 min 342 W/m 29,0 km/h (5 Bft) 85,11 %
23.03.2020 16:46 10,3 C 12,2 C 8,9 C 32 % 1031,8 hPa 0,0 l/m 2 min 0 min 335 W/m 19,3 km/h (3 Bft) 89,36 %
23.03.2020 16:48 10,3 C 12,2 C 8,9 C 32 % 1031,8 hPa 0,0 l/m 2 min 0 min 327 W/m 16,1 km/h (3 Bft) 93,62 %
23.03.2020 16:50 10,3 C 11,7 C 8,9 C 32 % 1031,8 hPa 0,0 l/m 2 min 0 min 322 W/m 3,2 km/h (1 Bft) 93,62 %
23.03.2020 16:52 10,3 C 11,7 C 8,9 C 32 % 1031,8 hPa 0,0 l/m 2 min 0 min 316 W/m 22,5 km/h (4 Bft) 91,30 %
23.03.2020 16:54 10,2 C 10,6 C 8,9 C 32 % 1031,8 hPa 0,0 l/m 2 min 0 min 310 W/m 22,5 km/h (4 Bft) 95,74 %
23.03.2020 16:56 10,2 C 10,0 C 8,9 C 32 % 1031,8 hPa 0,0 l/m 2 min 0 min 290 W/m 22,5 km/h (4 Bft) 91,49 %
23.03.2020 16:58 10,1 C 9,4 C 8,9 C 32 % 1031,8 hPa 0,0 l/m 0 min 0 min 129 W/m 0,0 km/h (0 Bft) 91,49 %
23.03.2020 17:00 10,1 C 9,4 C 8,9 C 34 % 1031,8 hPa 0,0 l/m 0 min 0 min 57 W/m 3,2 km/h (1 Bft) 91,49 %
23.03.2020 17:02 10,1 C 9,4 C 8,9 C 34 % 1031,8 hPa 0,0 l/m 0 min 0 min 55 W/m 12,9 km/h (3 Bft) 93,62 %
23.03.2020 17:04 10,1 C 9,4 C 8,9 C 34 % 1031,8 hPa 0,0 l/m 0 min 0 min 54 W/m 16,1 km/h (3 Bft) 95,65 %
23.03.2020 17:06 10,0 C 9,4 C 8,9 C 34 % 1031,9 hPa 0,0 l/m 0 min 0 min 54 W/m 12,9 km/h (3 Bft) 89,36 %
23.03.2020 17:08 9,9 C 9,4 C 8,3 C 34 % 1031,8 hPa 0,0 l/m 0 min 0 min 53 W/m 32,2 km/h (5 Bft) 89,36 %
23.03.2020 17:10 9,9 C 9,4 C 8,3 C 34 % 1031,8 hPa 0,0 l/m 0 min 0 min 53 W/m 25,7 km/h (4 Bft) 97,87 %
23.03.2020 17:12 9,9 C 9,4 C 8,3 C 34 % 1031,8 hPa 0,0 l/m 0 min 0 min 51 W/m 25,7 km/h (4 Bft) 95,74 %
23.03.2020 17:14 9,8 C 9,4 C 8,3 C 34 % 1031,8 hPa 0,0 l/m 0 min 0 min 51 W/m 22,5 km/h (4 Bft) 93,62 %
23.03.2020 17:16 9,8 C 9,4 C 8,3 C 34 % 1031,8 hPa 0,0 l/m 0 min 0 min 49 W/m 3,2 km/h (1 Bft) 97,83 %
23.03.2020 17:18 9,8 C 9,4 C 8,3 C 34 % 1031,8 hPa 0,0 l/m 0 min 0 min 48 W/m 0,0 km/h (0 Bft) 95,74 %
23.03.2020 17:20 9,8 C 8,9 C 8,3 C 34 % 1031,8 hPa 0,0 l/m 0 min 0 min 47 W/m 22,5 km/h (4 Bft) 100,00 %
23.03.2020 17:22 9,7 C 8,9 C 8,3 C 34 % 1031,7 hPa 0,0 l/m 0 min 0 min 46 W/m 16,1 km/h (3 Bft) 100,00 %
23.03.2020 17:24 9,7 C 8,9 C 8,3 C 34 % 1031,8 hPa 0,0 l/m 0 min 0 min 46 W/m 16,1 km/h (3 Bft) 97,87 %
23.03.2020 17:26 9,7 C 8,9 C 8,3 C 35 % 1031,8 hPa 0,0 l/m 0 min 0 min 44 W/m 16,1 km/h (3 Bft) 95,65 %
23.03.2020 17:28 9,7 C 8,9 C 8,3 C 35 % 1031,8 hPa 0,0 l/m 0 min 0 min 44 W/m 12,9 km/h (3 Bft) 97,87 %
23.03.2020 17:30 9,6 C 8,9 C 8,3 C 35 % 1031,9 hPa 0,0 l/m 0 min 0 min 42 W/m 12,9 km/h (3 Bft) 95,74 %
23.03.2020 17:32 9,6 C 8,9 C 8,3 C 35 % 1031,9 hPa 0,0 l/m 0 min 0 min 42 W/m 19,3 km/h (3 Bft) 93,62 %
23.03.2020 17:34 9,6 C 8,9 C 8,3 C 35 % 1031,9 hPa 0,0 l/m 0 min 0 min 41 W/m 0,0 km/h (0 Bft) 100,00 %
23.03.2020 17:36 9,6 C 8,9 C 7,8 C 36 % 1031,9 hPa 0,0 l/m 0 min 0 min 40 W/m 0,0 km/h (0 Bft) 100,00 %
23.03.2020 17:38 9,6 C 8,9 C 7,8 C 35 % 1031,9 hPa 0,0 l/m 0 min 0 min 40 W/m 16,1 km/h (3 Bft) 93,48 %
23.03.2020 17:40 9,6 C 8,9 C 7,8 C 36 % 1031,8 hPa 0,0 l/m 0 min 0 min 40 W/m 3,2 km/h (1 Bft) 95,74 %
23.03.2020 17:42 9,5 C 8,9 C 7,8 C 36 % 1031,8 hPa 0,0 l/m 0 min 0 min 39 W/m 6,4 km/h (2 Bft) 97,87 %
23.03.2020 17:44 9,5 C 8,9 C 7,8 C 36 % 1031,9 hPa 0,0 l/m 0 min 0 min 39 W/m 16,1 km/h (3 Bft) 100,00 %
23.03.2020 17:46 9,4 C 8,9 C 7,8 C 36 % 1031,9 hPa 0,0 l/m 0 min 0 min 37 W/m 12,9 km/h (3 Bft) 100,00 %
23.03.2020 17:48 9,4 C 8,9 C 7,8 C 36 % 1031,9 hPa 0,0 l/m 0 min 0 min 37 W/m 6,4 km/h (2 Bft) 93,62 %
23.03.2020 17:50 9,4 C 8,9 C 7,8 C 36 % 1031,8 hPa 0,0 l/m 0 min 0 min 35 W/m 6,4 km/h (2 Bft) 100,00 %
23.03.2020 17:52 9,4 C 8,9 C 7,8 C 35 % 1031,9 hPa 0,0 l/m 0 min 0 min 35 W/m 12,9 km/h (3 Bft) 95,74 %
23.03.2020 17:54 9,4 C 8,3 C 7,8 C 36 % 1031,9 hPa 0,0 l/m 0 min 0 min 33 W/m 6,4 km/h (2 Bft) 100,00 %
23.03.2020 17:56 9,3 C 8,3 C 7,8 C 35 % 1031,9 hPa 0,0 l/m 0 min 0 min 33 W/m 16,1 km/h (3 Bft) 97,87 %
23.03.2020 17:58 9,3 C 8,3 C 7,8 C 36 % 1031,8 hPa 0,0 l/m 0 min 0 min 33 W/m 12,9 km/h (3 Bft) 100,00 %
23.03.2020 18:00 9,3 C 8,3 C 7,8 C 36 % 1031,8 hPa 0,0 l/m 0 min 0 min 32 W/m 6,4 km/h (2 Bft) 97,87 %
23.03.2020 18:02 9,3 C 8,3 C 7,8 C 36 % 1031,8 hPa 0,0 l/m 0 min 0 min 31 W/m 0,0 km/h (0 Bft) 95,65 %
23.03.2020 18:04 9,2 C 8,3 C 7,2 C 37 % 1031,8 hPa 0,0 l/m 0 min 0 min 30 W/m 0,0 km/h (0 Bft) 95,74 %
23.03.2020 18:08 9,2 C 8,3 C 7,2 C 38 % 1031,9 hPa 0,0 l/m 0 min 0 min 28 W/m 0,0 km/h (0 Bft) 96,81 %
23.03.2020 18:10 9,1 C 7,8 C 7,2 C 39 % 1031,9 hPa 0,0 l/m 0 min 0 min 27 W/m 0,0 km/h (0 Bft) 89,36 %
23.03.2020 18:12 9,1 C 7,8 C 7,2 C 39 % 1031,9 hPa 0,0 l/m 0 min 0 min 26 W/m 0,0 km/h (0 Bft) 97,87 %
23.03.2020 18:14 9,0 C 7,8 C 7,2 C 40 % 1031,9 hPa 0,0 l/m 0 min 0 min 26 W/m 0,0 km/h (0 Bft) 91,30 %
23.03.2020 18:16 8,9 C 7,8 C 7,2 C 40 % 1031,9 hPa 0,0 l/m 0 min 0 min 25 W/m 0,0 km/h (0 Bft) 93,62 %
23.03.2020 18:18 8,9 C 7,8 C 7,2 C 40 % 1031,9 hPa 0,0 l/m 0 min 0 min 24 W/m 0,0 km/h (0 Bft) 93,62 %
23.03.2020 18:20 8,8 C 7,8 C 6,7 C 40 % 1031,9 hPa 0,0 l/m 0 min 0 min 23 W/m 0,0 km/h (0 Bft) 95,74 %
23.03.2020 18:22 8,8 C 7,8 C 6,7 C 41 % 1031,9 hPa 0,0 l/m 0 min 0 min 21 W/m 0,0 km/h (0 Bft) 93,62 %
23.03.2020 18:24 8,7 C 7,8 C 6,7 C 40 % 1031,9 hPa 0,0 l/m 0 min 0 min 21 W/m 0,0 km/h (0 Bft) 95,74 %
23.03.2020 18:26 8,6 C 7,8 C 6,7 C 40 % 1032,0 hPa 0,0 l/m 0 min 0 min 20 W/m 12,9 km/h (3 Bft) 95,65 %
23.03.2020 18:28 8,6 C 7,2 C 6,7 C 40 % 1032,0 hPa 0,0 l/m 0 min 0 min 19 W/m 6,4 km/h (2 Bft) 91,49 %
23.03.2020 18:30 8,5 C 7,2 C 6,7 C 40 % 1031,9 hPa 0,0 l/m 0 min 0 min 18 W/m 12,9 km/h (3 Bft) 95,74 %
23.03.2020 18:32 8,4 C 7,2 C 6,7 C 39 % 1032,0 hPa 0,0 l/m 0 min 0 min 16 W/m 3,2 km/h (1 Bft) 95,74 %
23.03.2020 18:34 8,4 C 7,2 C 6,7 C 39 % 1032,1 hPa 0,0 l/m 0 min 0 min 16 W/m 0,0 km/h (0 Bft) 91,49 %
23.03.2020 18:36 8,3 C 7,2 C 6,7 C 39 % 1032,0 hPa 0,0 l/m 0 min 0 min 14 W/m 0,0 km/h (0 Bft) 95,74 %
23.03.2020 18:38 8,3 C 7,2 C 6,7 C 39 % 1032,1 hPa 0,0 l/m 0 min 0 min 12 W/m 0,0 km/h (0 Bft) 97,83 %
23.03.2020 18:40 8,2 C 7,2 C 6,7 C 38 % 1032,0 hPa 0,0 l/m 0 min 0 min 12 W/m 0,0 km/h (0 Bft) 95,74 %
23.03.2020 18:42 8,2 C 7,2 C 6,7 C 38 % 1032,0 hPa 0,0 l/m 0 min 0 min 11 W/m 0,0 km/h (0 Bft) 93,62 %
23.03.2020 18:44 8,2 C 7,2 C 6,7 C 38 % 1032,0 hPa 0,0 l/m 0 min 0 min 11 W/m 6,4 km/h (2 Bft) 93,62 %
23.03.2020 18:46 8,1 C 7,2 C 6,7 C 38 % 1032,0 hPa 0,0 l/m 0 min 0 min 9 W/m 0,0 km/h (0 Bft) 95,74 %
23.03.2020 18:48 8,1 C 7,2 C 6,1 C 38 % 1032,0 hPa 0,0 l/m 0 min 0 min 7 W/m 9,7 km/h (2 Bft) 95,65 %
23.03.2020 18:50 8,1 C 7,2 C 6,1 C 38 % 1032,0 hPa 0,0 l/m 0 min 0 min 6 W/m 16,1 km/h (3 Bft) 93,62 %
23.03.2020 18:52 8,1 C 7,2 C 6,7 C 38 % 1032,0 hPa 0,0 l/m 0 min 0 min 5 W/m 16,1 km/h (3 Bft) 97,87 %
23.03.2020 18:54 8,0 C 7,2 C 6,1 C 38 % 1032,0 hPa 0,0 l/m 0 min 0 min 4 W/m 22,5 km/h (4 Bft) 95,74 %
23.03.2020 18:56 8,0 C 7,2 C 6,7 C 37 % 1032,0 hPa 0,0 l/m 0 min 0 min 0 W/m 25,7 km/h (4 Bft) 100,00 %
23.03.2020 18:58 8,0 C 7,2 C 6,7 C 37 % 1032,0 hPa 0,0 l/m 0 min 0 min 0 W/m 16,1 km/h (3 Bft) 100,00 %
23.03.2020 19:00 8,0 C 7,2 C 6,1 C 37 % 1032,0 hPa 0,0 l/m 0 min 0 min 0 W/m 12,9 km/h (3 Bft) 100,00 %
23.03.2020 19:02 7,9 C 7,2 C 6,1 C 37 % 1032,0 hPa 0,0 l/m 0 min 0 min 0 W/m 0,0 km/h (0 Bft) 100,00 %
23.03.2020 19:04 7,9 C 6,7 C 6,1 C 37 % 1031,9 hPa 0,0 l/m 0 min 0 min 0 W/m 6,4 km/h (2 Bft) 100,00 %
23.03.2020 19:06 7,9 C 6,7 C 6,1 C 37 % 1032,0 hPa 0,0 l/m 0 min 0 min 0 W/m 16,1 km/h (3 Bft) 100,00 %
23.03.2020 19:08 7,9 C 6,7 C 6,1 C 38 % 1031,9 hPa 0,0 l/m 0 min 0 min 0 W/m 6,4 km/h (2 Bft) 97,87 %
23.03.2020 19:10 7,8 C 6,7 C 6,1 C 38 % 1032,0 hPa 0,0 l/m 0 min 0 min 0 W/m 0,0 km/h (0 Bft) 100,00 %
23.03.2020 19:12 7,8 C 6,7 C 5,6 C 37 % 1032,0 hPa 0,0 l/m 0 min 0 min 0 W/m 12,9 km/h (3 Bft) 97,83 %
23.03.2020 19:14 7,8 C 6,7 C 6,1 C 37 % 1032,0 hPa 0,0 l/m 0 min 0 min 0 W/m 16,1 km/h (3 Bft) 100,00 %
23.03.2020 19:16 7,8 C 6,7 C 6,1 C 37 % 1032,0 hPa 0,0 l/m 0 min 0 min 0 W/m 19,3 km/h (3 Bft) 95,74 %
23.03.2020 19:18 7,7 C 6,7 C 6,1 C 37 % 1032,1 hPa 0,0 l/m 0 min 0 min 0 W/m 19,3 km/h (3 Bft) 100,00 %
23.03.2020 19:20 7,7 C 6,7 C 6,1 C 37 % 1032,1 hPa 0,0 l/m 0 min 0 min 0 W/m 25,7 km/h (4 Bft) 100,00 %
23.03.2020 19:22 7,7 C 6,7 C 6,1 C 37 % 1032,0 hPa 0,0 l/m 0 min 0 min 0 W/m 0,0 km/h (0 Bft) 100,00 %
23.03.2020 19:24 7,6 C 6,7 C 6,1 C 38 % 1032,1 hPa 0,0 l/m 0 min 0 min 0 W/m 3,2 km/h (1 Bft) 100,00 %
23.03.2020 19:26 7,6 C 6,7 C 6,1 C 38 % 1032,1 hPa 0,0 l/m 0 min 0 min 0 W/m 12,9 km/h (3 Bft) 100,00 %
23.03.2020 19:31 7,5 C 6,7 C 5,6 C 38 % 1032,2 hPa 0,0 l/m 0 min 0 min 0 W/m 3,2 km/h (1 Bft) 100,00 %
23.03.2020 19:32 7,4 C 6,7 C 5,6 C 38 % 1032,2 hPa 0,0 l/m 0 min 0 min 0 W/m 0,0 km/h (0 Bft) 100,00 %
23.03.2020 19:34 7,4 C 6,7 C 5,6 C 38 % 1032,2 hPa 0,0 l/m 0 min 0 min 0 W/m 0,0 km/h (0 Bft) 97,83 %
23.03.2020 19:36 7,4 C 6,1 C 5,6 C 39 % 1032,2 hPa 0,0 l/m 0 min 0 min 0 W/m 0,0 km/h (0 Bft) 100,00 %
23.03.2020 19:38 7,4 C 6,1 C 5,6 C 39 % 1032,3 hPa 0,0 l/m 0 min 0 min 0 W/m 3,2 km/h (1 Bft) 100,00 %
23.03.2020 19:40 7,3 C 6,1 C 5,6 C 39 % 1032,2 hPa 0,0 l/m 0 min 0 min 0 W/m 6,4 km/h (2 Bft) 100,00 %
23.03.2020 19:42 7,3 C 6,1 C 5,0 C 39 % 1032,2 hPa 0,0 l/m 0 min 0 min 0 W/m 0,0 km/h (0 Bft) 97,87 %
23.03.2020 19:44 7,2 C 6,1 C 5,0 C 40 % 1032,2 hPa 0,0 l/m 0 min 0 min 0 W/m 0,0 km/h (0 Bft) 100,00 %
23.03.2020 19:46 7,1 C 6,1 C 5,0 C 40 % 1032,3 hPa 0,0 l/m 0 min 0 min 0 W/m 3,2 km/h (1 Bft) 100,00 %
23.03.2020 19:48 7,1 C 5,6 C 5,0 C 40 % 1032,3 hPa 0,0 l/m 0 min 0 min 0 W/m 3,2 km/h (1 Bft) 100,00 %
23.03.2020 19:50 7,1 C 6,1 C 5,0 C 40 % 1032,3 hPa 0,0 l/m 0 min 0 min 0 W/m 3,2 km/h (1 Bft) 100,00 %
23.03.2020 19:52 7,0 C 5,6 C 5,0 C 40 % 1032,3 hPa 0,0 l/m 0 min 0 min 0 W/m 3,2 km/h (1 Bft) 100,00 %
23.03.2020 19:54 6,9 C 5,6 C 5,0 C 41 % 1032,4 hPa 0,0 l/m 0 min 0 min 0 W/m 0,0 km/h (0 Bft) 100,00 %
23.03.2020 19:56 6,9 C 5,6 C 5,0 C 41 % 1032,3 hPa 0,0 l/m 0 min 0 min 0 W/m 0,0 km/h (0 Bft) 97,87 %
23.03.2020 19:58 6,8 C 5,6 C 5,0 C 41 % 1032,3 hPa 0,0 l/m 0 min 0 min 0 W/m 0,0 km/h (0 Bft) 100,00 %
23.03.2020 20:00 6,8 C 6,1 C 5,0 C 40 % 1032,3 hPa 0,0 l/m 0 min 0 min 0 W/m 3,2 km/h (1 Bft) 100,00 %
23.03.2020 20:02 6,8 C 5,6 C 5,0 C 40 % 1032,3 hPa 0,0 l/m 0 min 0 min 0 W/m 0,0 km/h (0 Bft) 97,87 %
23.03.2020 20:04 6,8 C 5,6 C 5,0 C 41 % 1032,2 hPa 0,0 l/m 0 min 0 min 0 W/m 0,0 km/h (0 Bft) 100,00 %
23.03.2020 20:06 6,7 C 5,6 C 5,0 C 41 % 1032,2 hPa 0,0 l/m 0 min 0 min 0 W/m 0,0 km/h (0 Bft) 97,87 %
23.03.2020 20:08 6,7 C 5,6 C 5,0 C 41 % 1032,2 hPa 0,0 l/m 0 min 0 min 0 W/m 0,0 km/h (0 Bft) 97,87 %
23.03.2020 20:10 6,7 C 5,6 C 5,0 C 40 % 1032,1 hPa 0,0 l/m 0 min 0 min 0 W/m 3,2 km/h (1 Bft) 97,83 %
23.03.2020 20:12 6,7 C 5,6 C 5,0 C 41 % 1032,2 hPa 0,0 l/m 0 min 0 min 0 W/m 16,1 km/h (3 Bft) 98,31 %
23.03.2020 20:14 6,6 C 5,6 C 5,0 C 41 % 1032,2 hPa 0,0 l/m 0 min 0 min 0 W/m 0,0 km/h (0 Bft) 95,74 %
23.03.2020 20:16 6,6 C 5,6 C 5,0 C 41 % 1032,1 hPa 0,0 l/m 0 min 0 min 0 W/m 6,4 km/h (2 Bft) 97,87 %
23.03.2020 20:18 6,6 C 5,6 C 5,0 C 40 % 1032,1 hPa 0,0 l/m 0 min 0 min 0 W/m 6,4 km/h (2 Bft) 97,83 %
23.03.2020 20:20 6,6 C 5,6 C 5,0 C 40 % 1032,1 hPa 0,0 l/m 0 min 0 min 0 W/m 3,2 km/h (1 Bft) 95,74 %
23.03.2020 20:22 6,6 C 5,6 C 5,0 C 40 % 1032,2 hPa 0,0 l/m 0 min 0 min 0 W/m 0,0 km/h (0 Bft) 95,74 %
23.03.2020 20:24 6,6 C 5,6 C 5,0 C 40 % 1032,1 hPa 0,0 l/m 0 min 0 min 0 W/m 0,0 km/h (0 Bft) 97,87 %
23.03.2020 20:26 6,6 C 5,6 C 5,0 C 41 % 1032,2 hPa 0,0 l/m 0 min 0 min 0 W/m 0,0 km/h (0 Bft) 97,87 %
23.03.2020 20:28 6,6 C 5,6 C 4,4 C 41 % 1032,2 hPa 0,0 l/m 0 min 0 min 0 W/m 3,2 km/h (1 Bft) 95,74 %
23.03.2020 20:30 6,6 C 5,6 C 4,4 C 41 % 1032,2 hPa 0,0 l/m 0 min 0 min 0 W/m 3,2 km/h (1 Bft) 95,65 %
23.03.2020 20:32 6,5 C 5,6 C 4,4 C 41 % 1032,1 hPa 0,0 l/m 0 min 0 min 0 W/m 0,0 km/h (0 Bft) 94,29 %
23.03.2020 20:34 6,5 C 5,6 C 4,4 C 41 % 1032,1 hPa 0,0 l/m 0 min 0 min 0 W/m 0,0 km/h (0 Bft) 95,74 %
23.03.2020 20:36 6,5 C 5,6 C 4,4 C 41 % 1032,1 hPa 0,0 l/m 0 min 0 min 0 W/m 3,2 km/h (1 Bft) 94,92 %
23.03.2020 20:38 6,5 C 5,6 C 4,4 C 41 % 1032,1 hPa 0,0 l/m 0 min 0 min 0 W/m 0,0 km/h (0 Bft) 95,74 %
23.03.2020 20:40 6,4 C 5,6 C 4,4 C 41 % 1032,1 hPa 0,0 l/m 0 min 0 min 0 W/m 0,0 km/h (0 Bft) 95,65 %
23.03.2020 20:42 6,4 C 5,6 C 4,4 C 42 % 1032,1 hPa 0,0 l/m 0 min 0 min 0 W/m 6,4 km/h (2 Bft) 93,62 %
23.03.2020 20:44 6,4 C 5,6 C 4,4 C 42 % 1032,0 hPa 0,0 l/m 0 min 0 min 0 W/m 16,1 km/h (3 Bft) 95,74 %
23.03.2020 20:46 6,4 C 5,6 C 4,4 C 41 % 1032,1 hPa 0,0 l/m 0 min 0 min 0 W/m 6,4 km/h (2 Bft) 95,74 %
23.03.2020 20:48 6,3 C 5,6 C 4,4 C 42 % 1032,1 hPa 0,0 l/m 0 min 0 min 0 W/m 6,4 km/h (2 Bft) 95,74 %
23.03.2020 20:50 6,3 C 5,6 C 4,4 C 42 % 1032,1 hPa 0,0 l/m 0 min 0 min 0 W/m 3,2 km/h (1 Bft) 93,62 %
23.03.2020 20:52 6,3 C 5,6 C 4,4 C 42 % 1032,1 hPa 0,0 l/m 0 min 0 min 0 W/m 6,4 km/h (2 Bft) 95,65 %
23.03.2020 20:54 6,3 C 5,0 C 4,4 C 42 % 1032,1 hPa 0,0 l/m 0 min 0 min 0 W/m 0,0 km/h (0 Bft) 95,74 %
23.03.2020 20:56 6,3 C 5,0 C 4,4 C 42 % 1032,2 hPa 0,0 l/m 0 min 0 min 0 W/m 0,0 km/h (0 Bft) 95,74 %
23.03.2020 20:58 6,2 C 5,0 C 4,4 C 43 % 1032,2 hPa 0,0 l/m 0 min 0 min 0 W/m 0,0 km/h (0 Bft) 95,74 %
23.03.2020 21:00 6,2 C 5,0 C 4,4 C 43 % 1032,2 hPa 0,0 l/m 0 min 0 min 0 W/m 3,2 km/h (1 Bft) 95,74 %
23.03.2020 21:02 6,2 C 5,0 C 3,9 C 43 % 1032,2 hPa 0,0 l/m 0 min 0 min 0 W/m 0,0 km/h (0 Bft) 91,49 %
23.03.2020 21:04 6,1 C 5,0 C 3,9 C 44 % 1032,2 hPa 0,0 l/m 0 min 0 min 0 W/m 12,9 km/h (3 Bft) 93,48 %
23.03.2020 21:06 6,1 C 4,4 C 3,9 C 44 % 1032,2 hPa 0,0 l/m 0 min 0 min 0 W/m 0,0 km/h (0 Bft) 95,74 %
23.03.2020 21:08 6,0 C 4,4 C 3,9 C 44 % 1032,1 hPa 0,0 l/m 0 min 0 min 0 W/m 0,0 km/h (0 Bft) 95,74 %
23.03.2020 21:10 5,9 C 4,4 C 3,9 C 45 % 1032,1 hPa 0,0 l/m 0 min 0 min 0 W/m 3,2 km/h (1 Bft) 95,74 %
23.03.2020 21:12 5,8 C 4,4 C 3,9 C 45 % 1032,1 hPa 0,0 l/m 0 min 0 min 0 W/m 0,0 km/h (0 Bft) 93,62 %
23.03.2020 21:14 5,8 C 4,4 C 3,3 C 46 % 1032,1 hPa 0,0 l/m 0 min 0 min 0 W/m 3,2 km/h (1 Bft) 94,29 %
23.03.2020 21:16 5,7 C 4,4 C 3,3 C 46 % 1032,1 hPa 0,0 l/m 0 min 0 min 0 W/m 0,0 km/h (0 Bft) 96,55 %
23.03.2020 21:18 5,6 C 4,4 C 3,3 C 46 % 1032,2 hPa 0,0 l/m 0 min 0 min 0 W/m 0,0 km/h (0 Bft) 97,87 %
23.03.2020 21:20 5,6 C 3,9 C 3,3 C 46 % 1032,2 hPa 0,0 l/m 0 min 0 min 0 W/m 0,0 km/h (0 Bft) 97,14 %
23.03.2020 21:22 5,6 C 3,9 C 3,3 C 46 % 1032,2 hPa 0,0 l/m 0 min 0 min 0 W/m 0,0 km/h (0 Bft) 98,31 %
23.03.2020 21:24 5,4 C 3,9 C 3,3 C 46 % 1032,3 hPa 0,0 l/m 0 min 0 min 0 W/m 0,0 km/h (0 Bft) 97,87 %
23.03.2020 21:26 5,4 C 3,9 C 3,3 C 47 % 1032,4 hPa 0,0 l/m 0 min 0 min 0 W/m 0,0 km/h (0 Bft) 97,87 %
23.03.2020 21:28 5,3 C 3,9 C 2,8 C 47 % 1032,4 hPa 0,0 l/m 0 min 0 min 0 W/m 0,0 km/h (0 Bft) 97,83 %
23.03.2020 21:30 5,3 C 3,9 C 2,8 C 47 % 1032,4 hPa 0,0 l/m 0 min 0 min 0 W/m 0,0 km/h (0 Bft) 97,22 %
23.03.2020 21:32 5,3 C 3,3 C 2,8 C 47 % 1032,5 hPa 0,0 l/m 0 min 0 min 0 W/m 0,0 km/h (0 Bft) 96,55 %
23.03.2020 21:34 5,2 C 3,3 C 2,2 C 48 % 1032,5 hPa 0,0 l/m 0 min 0 min 0 W/m 0,0 km/h (0 Bft) 97,87 %
23.03.2020 21:36 5,2 C 2,8 C 2,2 C 48 % 1032,6 hPa 0,0 l/m 0 min 0 min 0 W/m 0,0 km/h (0 Bft) 97,87 %
23.03.2020 21:38 5,1 C 2,8 C 2,2 C 48 % 1032,6 hPa 0,0 l/m 0 min 0 min 0 W/m 0,0 km/h (0 Bft) 97,83 %
23.03.2020 21:40 5,1 C 2,8 C 1,7 C 48 % 1032,6 hPa 0,0 l/m 0 min 0 min 0 W/m 0,0 km/h (0 Bft) 97,87 %
23.03.2020 21:42 5,0 C 2,8 C 1,7 C 49 % 1032,7 hPa 0,0 l/m 0 min 0 min 0 W/m 0,0 km/h (0 Bft) 97,87 %
23.03.2020 21:44 4,9 C 2,8 C 1,7 C 48 % 1032,7 hPa 0,0 l/m 0 min 0 min 0 W/m 0,0 km/h (0 Bft) 97,87 %
23.03.2020 21:46 4,8 C 2,8 C 1,7 C 48 % 1032,8 hPa 0,0 l/m 0 min 0 min 0 W/m 0,0 km/h (0 Bft) 97,87 %
23.03.2020 21:48 4,8 C 3,3 C 1,7 C 48 % 1032,7 hPa 0,0 l/m 0 min 0 min 0 W/m 0,0 km/h (0 Bft) 95,74 %
23.03.2020 21:50 4,7 C 3,3 C 1,7 C 48 % 1032,7 hPa 0,0 l/m 0 min 0 min 0 W/m 0,0 km/h (0 Bft) 97,83 %
23.03.2020 21:52 4,6 C 3,3 C 1,7 C 48 % 1032,8 hPa 0,0 l/m 0 min 0 min 0 W/m 0,0 km/h (0 Bft) 97,87 %
23.03.2020 21:54 4,6 C 3,3 C 1,7 C 48 % 1032,8 hPa 0,0 l/m 0 min 0 min 0 W/m 0,0 km/h (0 Bft) 97,87 %
23.03.2020 21:56 4,5 C 3,3 C 1,7 C 47 % 1032,7 hPa 0,0 l/m 0 min 0 min 0 W/m 0,0 km/h (0 Bft) 97,87 %
23.03.2020 21:58 4,5 C 3,3 C 1,7 C 48 % 1032,7 hPa 0,0 l/m 0 min 0 min 0 W/m 0,0 km/h (0 Bft) 100,00 %
23.03.2020 22:00 4,4 C 3,3 C 1,7 C 48 % 1032,8 hPa 0,0 l/m 0 min 0 min 0 W/m 0,0 km/h (0 Bft) 97,87 %
23.03.2020 22:02 4,4 C 3,3 C 1,7 C 48 % 1032,7 hPa 0,0 l/m 0 min 0 min 0 W/m 0,0 km/h (0 Bft) 97,83 %
23.03.2020 22:04 4,4 C 3,3 C 1,7 C 48 % 1032,7 hPa 0,0 l/m 0 min 0 min 0 W/m 0,0 km/h (0 Bft) 90,91 %
23.03.2020 22:06 4,3 C 3,3 C 1,7 C 48 % 1032,7 hPa 0,0 l/m 0 min 0 min 0 W/m 0,0 km/h (0 Bft) 93,10 %
23.03.2020 22:08 4,3 C 3,3 C 1,7 C 48 % 1032,7 hPa 0,0 l/m 0 min 0 min 0 W/m 0,0 km/h (0 Bft) 100,00 %
23.03.2020 22:10 4,3 C 3,3 C 1,7 C 48 % 1032,7 hPa 0,0 l/m 0 min 0 min 0 W/m 0,0 km/h (0 Bft) 97,14 %
23.03.2020 22:12 4,3 C 3,3 C 2,2 C 48 % 1032,7 hPa 0,0 l/m 0 min 0 min 0 W/m 0,0 km/h (0 Bft) 100,00 %
23.03.2020 22:14 4,3 C 3,3 C 2,2 C 48 % 1032,6 hPa 0,0 l/m 0 min 0 min 0 W/m 0,0 km/h (0 Bft) 100,00 %
23.03.2020 22:16 4,3 C 3,9 C 2,2 C 48 % 1032,6 hPa 0,0 l/m 0 min 0 min 0 W/m 0,0 km/h (0 Bft) 100,00 %
23.03.2020 22:18 4,3 C 3,9 C 2,2 C 48 % 1032,6 hPa 0,0 l/m 0 min 0 min 0 W/m 0,0 km/h (0 Bft) 100,00 %
23.03.2020 22:20 4,3 C 3,9 C 2,2 C 48 % 1032,6 hPa 0,0 l/m 0 min 0 min 0 W/m 0,0 km/h (0 Bft) 100,00 %
23.03.2020 22:22 4,3 C 3,9 C 2,2 C 48 % 1032,6 hPa 0,0 l/m 0 min 0 min 0 W/m 0,0 km/h (0 Bft) 100,00 %
23.03.2020 22:24 4,3 C 3,3 C 2,2 C 48 % 1032,6 hPa 0,0 l/m 0 min 0 min 0 W/m 0,0 km/h (0 Bft) 100,00 %
23.03.2020 22:26 4,3 C 3,3 C 2,2 C 48 % 1032,6 hPa 0,0 l/m 0 min 0 min 0 W/m 0,0 km/h (0 Bft) 97,87 %
23.03.2020 22:28 4,3 C 3,3 C 2,2 C 48 % 1032,7 hPa 0,0 l/m 0 min 0 min 0 W/m 0,0 km/h (0 Bft) 98,28 %
23.03.2020 22:30 4,3 C 2,8 C 1,7 C 49 % 1032,7 hPa 0,0 l/m 0 min 0 min 0 W/m 0,0 km/h (0 Bft) 97,14 %
23.03.2020 22:32 4,2 C 2,8 C 1,7 C 49 % 1032,8 hPa 0,0 l/m 0 min 0 min 0 W/m 0,0 km/h (0 Bft) 98,31 %
23.03.2020 22:34 4,2 C 2,2 C 1,1 C 49 % 1032,8 hPa 0,0 l/m 0 min 0 min 0 W/m 0,0 km/h (0 Bft) 97,87 %
23.03.2020 22:36 4,2 C 1,7 C 1,1 C 50 % 1032,8 hPa 0,0 l/m 0 min 0 min 0 W/m 0,0 km/h (0 Bft) 97,83 %
23.03.2020 22:38 4,2 C 1,7 C 1,1 C 50 % 1032,8 hPa 0,0 l/m 0 min 0 min 0 W/m 0,0 km/h (0 Bft) 97,87 %
23.03.2020 22:40 4,1 C 1,7 C 1,1 C 51 % 1032,8 hPa 0,0 l/m 0 min 0 min 0 W/m 0,0 km/h (0 Bft) 93,62 %
23.03.2020 22:42 4,1 C 1,7 C 0,6 C 51 % 1032,8 hPa 0,0 l/m 0 min 0 min 0 W/m 0,0 km/h (0 Bft) 97,14 %
23.03.2020 22:44 4,0 C 1,7 C 0,6 C 51 % 1032,8 hPa 0,0 l/m 0 min 0 min 0 W/m 0,0 km/h (0 Bft) 97,87 %
23.03.2020 22:46 3,9 C 1,7 C 0,6 C 51 % 1032,8 hPa 0,0 l/m 0 min 0 min 0 W/m 0,0 km/h (0 Bft) 96,61 %
23.03.2020 22:48 3,8 C 1,7 C 0,6 C 51 % 1032,8 hPa 0,0 l/m 0 min 0 min 0 W/m 0,0 km/h (0 Bft) 95,65 %
23.03.2020 22:50 3,8 C 2,2 C 0,6 C 52 % 1032,7 hPa 0,0 l/m 0 min 0 min 0 W/m 0,0 km/h (0 Bft) 94,44 %
23.03.2020 22:52 3,7 C 2,2 C 1,1 C 52 % 1032,7 hPa 0,0 l/m 0 min 0 min 0 W/m 0,0 km/h (0 Bft) 94,83 %
23.03.2020 22:54 3,6 C 2,2 C 1,1 C 52 % 1032,7 hPa 0,0 l/m 0 min 0 min 0 W/m 0,0 km/h (0 Bft) 95,74 %
23.03.2020 22:56 3,6 C 2,2 C 1,1 C 52 % 1032,7 hPa 0,0 l/m 0 min 0 min 0 W/m 0,0 km/h (0 Bft) 90,00 %
23.03.2020 22:58 3,5 C 2,2 C 1,1 C 52 % 1032,6 hPa 0,0 l/m 0 min 0 min 0 W/m 0,0 km/h (0 Bft) 97,14 %
23.03.2020 23:00 3,4 C 2,2 C 1,1 C 53 % 1032,7 hPa 0,0 l/m 0 min 0 min 0 W/m 0,0 km/h (0 Bft) 95,24 %
23.03.2020 23:02 3,4 C 2,2 C 0,6 C 53 % 1032,7 hPa 0,0 l/m 0 min 0 min 0 W/m 0,0 km/h (0 Bft) 97,87 %
23.03.2020 23:04 3,3 C 1,7 C 0,6 C 53 % 1032,6 hPa 0,0 l/m 0 min 0 min 0 W/m 0,0 km/h (0 Bft) 95,74 %
23.03.2020 23:06 3,3 C 1,7 C 0,6 C 53 % 1032,6 hPa 0,0 l/m 0 min 0 min 0 W/m 0,0 km/h (0 Bft) 95,74 %
23.03.2020 23:08 3,3 C 1,7 C 0,6 C 54 % 1032,6 hPa 0,0 l/m 0 min 0 min 0 W/m 0,0 km/h (0 Bft) 97,87 %
23.03.2020 23:10 3,2 C 1,7 C 0,6 C 53 % 1032,6 hPa 0,0 l/m 0 min 0 min 0 W/m 0,0 km/h (0 Bft) 93,62 %
23.03.2020 23:12 3,2 C 2,2 C 0,6 C 53 % 1032,6 hPa 0,0 l/m 0 min 0 min 0 W/m 0,0 km/h (0 Bft) 95,65 %
23.03.2020 23:14 3,1 C 2,2 C 0,6 C 54 % 1032,6 hPa 0,0 l/m 0 min 0 min 0 W/m 0,0 km/h (0 Bft) 97,87 %
23.03.2020 23:16 3,1 C 2,2 C 0,6 C 54 % 1032,7 hPa 0,0 l/m 0 min 0 min 0 W/m 0,0 km/h (0 Bft) 97,87 %
23.03.2020 23:18 3,1 C 2,2 C 0,6 C 54 % 1032,6 hPa 0,0 l/m 0 min 0 min 0 W/m 0,0 km/h (0 Bft) 97,87 %
23.03.2020 23:20 3,0 C 2,2 C 1,1 C 54 % 1032,6 hPa 0,0 l/m 0 min 0 min 0 W/m 0,0 km/h (0 Bft) 100,00 %
23.03.2020 23:22 3,0 C 2,2 C 1,1 C 54 % 1032,6 hPa 0,0 l/m 0 min 0 min 0 W/m 0,0 km/h (0 Bft) 100,00 %
23.03.2020 23:24 3,0 C 2,2 C 1,7 C 54 % 1032,6 hPa 0,0 l/m 0 min 0 min 0 W/m 0,0 km/h (0 Bft) 100,00 %
23.03.2020 23:26 3,1 C 2,8 C 1,7 C 54 % 1032,6 hPa 0,0 l/m 0 min 0 min 0 W/m 16,1 km/h (3 Bft) 100,00 %
23.03.2020 23:28 3,1 C 2,8 C 1,7 C 54 % 1032,5 hPa 0,0 l/m 0 min 0 min 0 W/m 12,9 km/h (3 Bft) 97,87 %
23.03.2020 23:30 3,1 C 2,8 C 2,2 C 53 % 1032,5 hPa 0,0 l/m 0 min 0 min 0 W/m 6,4 km/h (2 Bft) 100,00 %
23.03.2020 23:32 3,2 C 2,8 C 2,2 C 53 % 1032,5 hPa 0,0 l/m 0 min 0 min 0 W/m 16,1 km/h (3 Bft) 97,87 %
23.03.2020 23:34 3,2 C 2,8 C 2,2 C 52 % 1032,5 hPa 0,0 l/m 0 min 0 min 0 W/m 0,0 km/h (0 Bft) 100,00 %
23.03.2020 23:36 3,3 C 3,3 C 2,2 C 52 % 1032,4 hPa 0,0 l/m 0 min 0 min 0 W/m 16,1 km/h (3 Bft) 97,87 %
23.03.2020 23:38 3,4 C 3,3 C 2,2 C 51 % 1032,4 hPa 0,0 l/m 0 min 0 min 0 W/m 22,5 km/h (4 Bft) 100,00 %
23.03.2020 23:40 3,5 C 3,3 C 2,8 C 51 % 1032,4 hPa 0,0 l/m 0 min 0 min 0 W/m 19,3 km/h (3 Bft) 97,87 %
23.03.2020 23:42 3,6 C 3,3 C 2,8 C 50 % 1032,4 hPa 0,0 l/m 0 min 0 min 0 W/m 16,1 km/h (3 Bft) 100,00 %
23.03.2020 23:44 3,6 C 3,3 C 2,8 C 50 % 1032,4 hPa 0,0 l/m 0 min 0 min 0 W/m 25,7 km/h (4 Bft) 97,87 %
23.03.2020 23:46 3,7 C 3,3 C 2,8 C 50 % 1032,3 hPa 0,0 l/m 0 min 0 min 0 W/m 22,5 km/h (4 Bft) 100,00 %
23.03.2020 23:48 3,8 C 3,3 C 2,8 C 50 % 1032,4 hPa 0,0 l/m 0 min 0 min 0 W/m 3,2 km/h (1 Bft) 100,00 %
23.03.2020 23:50 3,8 C 3,3 C 2,8 C 50 % 1032,3 hPa 0,0 l/m 0 min 0 min 0 W/m 16,1 km/h (3 Bft) 100,00 %
23.03.2020 23:52 3,8 C 3,3 C 2,8 C 50 % 1032,4 hPa 0,0 l/m 0 min 0 min 0 W/m 19,3 km/h (3 Bft) 97,87 %
23.03.2020 23:54 3,8 C 3,3 C 2,8 C 50 % 1032,4 hPa 0,0 l/m 0 min 0 min 0 W/m 12,9 km/h (3 Bft) 100,00 %
23.03.2020 23:56 3,9 C 3,3 C 2,8 C 50 % 1032,3 hPa 0,0 l/m 0 min 0 min 0 W/m 22,5 km/h (4 Bft) 100,00 %
23.03.2020 23:58 3,9 C 3,3 C 2,8 C 50 % 1032,3 hPa 0,0 l/m 0 min 0 min 0 W/m 3,2 km/h (1 Bft) 93,48 %
_ Min-Zeit 06:34 05:30 05:32 15:36 17:22 - - - - 02:26 00:02
Minimum _ 0,6 C 0,0 C -0,6 C 31 % 1031,7 hPa - - - - 0,0 km/h (0 Bft) 11,11 %
_ Max-Zeit 15:22 13:26 13:24 02:28 08:44 00:00 08:44 00:00 12:46 08:58 01:16
Maximum _ 10,8 C 14,4 C 15,6 C 61 % 1034,3 hPa 0,0 l/m 4 min 0 min 751 W/m 54,7 km/h
S-SO (7 Bft)
100,00 %
Durchschnitt _ 5,2 C 5,8 C 4,4 C 47 % 1033,0 hPa #0,0 l/m #8:18 h #0 min. 406 W/m 17,3 km/h (3 Bft) 96,61 %
© 2020 W. Hausmann